Wetterdaten: Sonntag, 10.08.2014
Datum Zeit Temp. Aussen +5cm Feuchte Auss Luftdruck Regen Sonnenschein Regendauer UV Solar Windben
10.08.2014 00:00 17,5 C 15,6 C 88 % 1011,9 hPa 0,0 l/m 0 min 0 min 0,0 UV-I 0 W/m 0,0 km/h (0 Bft)
10.08.2014 00:02 17,5 C 15,6 C 88 % 1012,0 hPa 0,0 l/m 0 min 0 min 0,0 UV-I 0 W/m 0,0 km/h (0 Bft)
10.08.2014 00:05 17,5 C 15,6 C 89 % 1011,9 hPa 0,0 l/m 0 min 0 min 0,0 UV-I 0 W/m 0,0 km/h (0 Bft)
10.08.2014 00:06 17,5 C 15,6 C 89 % 1011,9 hPa 0,0 l/m 0 min 0 min 0,0 UV-I 0 W/m 0,0 km/h (0 Bft)
10.08.2014 00:08 17,5 C 15,6 C 89 % 1011,9 hPa 0,0 l/m 0 min 0 min 0,0 UV-I 0 W/m 0,0 km/h (0 Bft)
10.08.2014 00:10 17,5 C 15,6 C 89 % 1011,9 hPa 0,0 l/m 0 min 0 min 0,0 UV-I 0 W/m 0,0 km/h (0 Bft)
10.08.2014 00:12 17,6 C 15,6 C 90 % 1011,8 hPa 0,0 l/m 0 min 0 min 0,0 UV-I 0 W/m 0,0 km/h (0 Bft)
10.08.2014 00:14 17,6 C 15,6 C 89 % 1011,8 hPa 0,0 l/m 0 min 0 min 0,0 UV-I 0 W/m 0,0 km/h (0 Bft)
10.08.2014 00:16 17,5 C 15,6 C 89 % 1011,8 hPa 0,0 l/m 0 min 0 min 0,0 UV-I 0 W/m 0,0 km/h (0 Bft)
10.08.2014 00:18 17,4 C 15,6 C 89 % 1011,8 hPa 0,0 l/m 0 min 0 min 0,0 UV-I 0 W/m 0,0 km/h (0 Bft)
10.08.2014 00:20 17,4 C 15,6 C 89 % 1011,7 hPa 0,0 l/m 0 min 0 min 0,0 UV-I 0 W/m 0,0 km/h (0 Bft)
10.08.2014 00:22 17,5 C 15,6 C 89 % 1011,6 hPa 0,0 l/m 0 min 0 min 0,0 UV-I 0 W/m 0,0 km/h (0 Bft)
10.08.2014 00:24 17,5 C 15,6 C 89 % 1011,6 hPa 0,0 l/m 0 min 0 min 0,0 UV-I 0 W/m 0,0 km/h (0 Bft)
10.08.2014 00:26 17,5 C 15,6 C 89 % 1011,6 hPa 0,0 l/m 0 min 0 min 0,0 UV-I 0 W/m 0,0 km/h (0 Bft)
10.08.2014 00:28 17,5 C 15,6 C 89 % 1011,5 hPa 0,0 l/m 0 min 0 min 0,0 UV-I 0 W/m 0,0 km/h (0 Bft)
10.08.2014 00:30 17,5 C 15,6 C 89 % 1011,5 hPa 0,0 l/m 0 min 0 min 0,0 UV-I 0 W/m 0,0 km/h (0 Bft)
10.08.2014 00:32 17,4 C 15,6 C 89 % 1011,5 hPa 0,0 l/m 0 min 0 min 0,0 UV-I 0 W/m 3,5 km/h (1 Bft)
10.08.2014 00:34 17,4 C 15,6 C 89 % 1011,5 hPa 0,0 l/m 0 min 0 min 0,0 UV-I 0 W/m 0,0 km/h (0 Bft)
10.08.2014 00:36 17,4 C 15,6 C 89 % 1011,5 hPa 0,0 l/m 0 min 0 min 0,0 UV-I 0 W/m 0,0 km/h (0 Bft)
10.08.2014 00:38 17,4 C 15,6 C 90 % 1011,5 hPa 0,0 l/m 0 min 0 min 0,0 UV-I 0 W/m 0,0 km/h (0 Bft)
10.08.2014 00:40 17,4 C 15,6 C 89 % 1011,4 hPa 0,0 l/m 0 min 0 min 0,0 UV-I 0 W/m 0,0 km/h (0 Bft)
10.08.2014 00:42 17,4 C 15,6 C 89 % 1011,4 hPa 0,0 l/m 0 min 0 min 0,0 UV-I 0 W/m 0,0 km/h (0 Bft)
10.08.2014 00:44 17,4 C 15,6 C 89 % 1011,4 hPa 0,0 l/m 0 min 0 min 0,0 UV-I 0 W/m 0,0 km/h (0 Bft)
10.08.2014 00:46 17,4 C 15,6 C 89 % 1011,3 hPa 0,0 l/m 0 min 0 min 0,0 UV-I 0 W/m 0,0 km/h (0 Bft)
10.08.2014 00:48 17,3 C 15,6 C 90 % 1011,3 hPa 0,0 l/m 0 min 0 min 0,0 UV-I 0 W/m 10,7 km/h (2 Bft)
10.08.2014 00:50 17,3 C 15,6 C 90 % 1011,2 hPa 0,0 l/m 0 min 0 min 0,0 UV-I 0 W/m 7,1 km/h (2 Bft)
10.08.2014 00:52 17,3 C 15,6 C 90 % 1011,2 hPa 0,0 l/m 0 min 0 min 0,0 UV-I 0 W/m 0,0 km/h (0 Bft)
10.08.2014 00:54 17,3 C 15,6 C 90 % 1011,2 hPa 0,0 l/m 0 min 0 min 0,0 UV-I 0 W/m 0,0 km/h (0 Bft)
10.08.2014 00:56 17,3 C 15,6 C 90 % 1011,2 hPa 0,0 l/m 0 min 0 min 0,0 UV-I 0 W/m 3,5 km/h (1 Bft)
10.08.2014 00:58 17,3 C 15,6 C 90 % 1011,1 hPa 0,0 l/m 0 min 0 min 0,0 UV-I 0 W/m 0,0 km/h (0 Bft)
10.08.2014 01:00 17,2 C 15,6 C 90 % 1011,1 hPa 0,0 l/m 0 min 0 min 0,0 UV-I 0 W/m 0,0 km/h (0 Bft)
10.08.2014 01:02 17,2 C 15,6 C 90 % 1011,1 hPa 0,0 l/m 0 min 0 min 0,0 UV-I 0 W/m 0,0 km/h (0 Bft)
10.08.2014 01:04 17,2 C 15,6 C 90 % 1011,0 hPa 0,0 l/m 0 min 0 min 0,0 UV-I 0 W/m 0,0 km/h (0 Bft)
10.08.2014 01:06 17,2 C 15,6 C 90 % 1011,1 hPa 0,0 l/m 0 min 0 min 0,0 UV-I 0 W/m 0,0 km/h (0 Bft)
10.08.2014 01:08 17,2 C 15,6 C 90 % 1011,1 hPa 0,0 l/m 0 min 0 min 0,0 UV-I 0 W/m 0,0 km/h (0 Bft)
10.08.2014 01:10 17,2 C 15,6 C 89 % 1011,1 hPa 0,0 l/m 0 min 0 min 0,0 UV-I 0 W/m 0,0 km/h (0 Bft)
10.08.2014 01:12 17,2 C 15,6 C 89 % 1011,1 hPa 0,0 l/m 0 min 0 min 0,0 UV-I 0 W/m 0,0 km/h (0 Bft)
10.08.2014 01:14 17,2 C 15,6 C 90 % 1011,1 hPa 0,0 l/m 0 min 0 min 0,0 UV-I 0 W/m 0,0 km/h (0 Bft)
10.08.2014 01:16 17,2 C 15,6 C 90 % 1011,1 hPa 0,0 l/m 0 min 0 min 0,0 UV-I 0 W/m 0,0 km/h (0 Bft)
10.08.2014 01:18 17,2 C 15,6 C 90 % 1011,1 hPa 0,0 l/m 0 min 0 min 0,0 UV-I 0 W/m 0,0 km/h (0 Bft)
10.08.2014 01:20 17,2 C 15,6 C 90 % 1011,1 hPa 0,0 l/m 0 min 0 min 0,0 UV-I 0 W/m 0,0 km/h (0 Bft)
10.08.2014 01:22 17,1 C 15,6 C 90 % 1011,0 hPa 0,0 l/m 0 min 0 min 0,0 UV-I 0 W/m 0,0 km/h (0 Bft)
10.08.2014 01:24 17,1 C 15,6 C 90 % 1011,1 hPa 0,0 l/m 0 min 0 min 0,0 UV-I 0 W/m 3,5 km/h (1 Bft)
10.08.2014 01:26 17,0 C 15,6 C 90 % 1011,1 hPa 0,0 l/m 0 min 0 min 0,0 UV-I 0 W/m 0,0 km/h (0 Bft)
10.08.2014 01:28 17,0 C 15,6 C 90 % 1011,0 hPa 0,0 l/m 0 min 0 min 0,0 UV-I 0 W/m 3,5 km/h (1 Bft)
10.08.2014 01:30 16,9 C 15,6 C 90 % 1011,0 hPa 0,0 l/m 0 min 0 min 0,0 UV-I 0 W/m 0,0 km/h (0 Bft)
10.08.2014 01:32 16,9 C 15,6 C 90 % 1011,0 hPa 0,0 l/m 0 min 0 min 0,0 UV-I 0 W/m 3,5 km/h (1 Bft)
10.08.2014 01:34 16,9 C 15,6 C 90 % 1011,0 hPa 0,0 l/m 0 min 0 min 0,0 UV-I 0 W/m 3,5 km/h (1 Bft)
10.08.2014 01:36 16,9 C 15,6 C 90 % 1011,0 hPa 0,0 l/m 0 min 0 min 0,0 UV-I 0 W/m 10,7 km/h (2 Bft)
10.08.2014 01:38 16,9 C 15,6 C 90 % 1011,0 hPa 0,0 l/m 0 min 0 min 0,0 UV-I 0 W/m 10,7 km/h (2 Bft)
10.08.2014 01:40 16,9 C 15,6 C 90 % 1011,0 hPa 0,0 l/m 0 min 0 min 0,0 UV-I 0 W/m 7,1 km/h (2 Bft)
10.08.2014 01:42 16,9 C 15,6 C 90 % 1011,0 hPa 0,0 l/m 0 min 0 min 0,0 UV-I 0 W/m 7,1 km/h (2 Bft)
10.08.2014 01:44 16,9 C 15,6 C 90 % 1011,0 hPa 0,0 l/m 0 min 0 min 0,0 UV-I 0 W/m 0,0 km/h (0 Bft)
10.08.2014 01:46 16,9 C 15,6 C 90 % 1011,0 hPa 0,0 l/m 0 min 0 min 0,0 UV-I 0 W/m 0,0 km/h (0 Bft)
10.08.2014 01:48 16,9 C 15,0 C 90 % 1010,9 hPa 0,0 l/m 0 min 0 min 0,0 UV-I 0 W/m 0,0 km/h (0 Bft)
10.08.2014 01:50 16,9 C 15,0 C 90 % 1010,8 hPa 0,0 l/m 0 min 0 min 0,0 UV-I 0 W/m 0,0 km/h (0 Bft)
10.08.2014 01:52 16,8 C 15,0 C 90 % 1010,8 hPa 0,0 l/m 0 min 0 min 0,0 UV-I 0 W/m 0,0 km/h (0 Bft)
10.08.2014 01:54 16,8 C 15,0 C 90 % 1010,8 hPa 0,0 l/m 0 min 0 min 0,0 UV-I 0 W/m 0,0 km/h (0 Bft)
10.08.2014 01:56 16,8 C 15,0 C 91 % 1010,8 hPa 0,0 l/m 0 min 0 min 0,0 UV-I 0 W/m 0,0 km/h (0 Bft)
10.08.2014 01:58 16,7 C 15,0 C 91 % 1010,8 hPa 0,0 l/m 0 min 0 min 0,0 UV-I 0 W/m 0,0 km/h (0 Bft)
10.08.2014 02:00 16,6 C 15,0 C 91 % 1010,8 hPa 0,0 l/m 0 min 0 min 0,0 UV-I 0 W/m 0,0 km/h (0 Bft)
10.08.2014 02:02 16,6 C 15,0 C 91 % 1010,8 hPa 0,0 l/m 0 min 0 min 0,0 UV-I 0 W/m 0,0 km/h (0 Bft)
10.08.2014 02:04 16,4 C 14,4 C 91 % 1010,8 hPa 0,0 l/m 0 min 0 min 0,0 UV-I 0 W/m 0,0 km/h (0 Bft)
10.08.2014 02:06 16,4 C 14,4 C 92 % 1010,8 hPa 0,0 l/m 0 min 0 min 0,0 UV-I 0 W/m 0,0 km/h (0 Bft)
10.08.2014 02:08 16,3 C 14,4 C 92 % 1010,8 hPa 0,0 l/m 0 min 0 min 0,0 UV-I 0 W/m 0,0 km/h (0 Bft)
10.08.2014 02:10 16,3 C 14,4 C 92 % 1010,8 hPa 0,0 l/m 0 min 0 min 0,0 UV-I 0 W/m 0,0 km/h (0 Bft)
10.08.2014 02:12 16,3 C 14,4 C 92 % 1010,9 hPa 0,0 l/m 0 min 0 min 0,0 UV-I 0 W/m 0,0 km/h (0 Bft)
10.08.2014 02:14 16,2 C 14,4 C 92 % 1010,8 hPa 0,0 l/m 0 min 0 min 0,0 UV-I 0 W/m 0,0 km/h (0 Bft)
10.08.2014 02:16 16,2 C 14,4 C 92 % 1010,8 hPa 0,0 l/m 0 min 0 min 0,0 UV-I 0 W/m 0,0 km/h (0 Bft)
10.08.2014 02:18 16,2 C 14,4 C 93 % 1010,8 hPa 0,0 l/m 0 min 0 min 0,0 UV-I 0 W/m 0,0 km/h (0 Bft)
10.08.2014 02:20 16,2 C 14,4 C 93 % 1010,8 hPa 0,0 l/m 0 min 0 min 0,0 UV-I 0 W/m 0,0 km/h (0 Bft)
10.08.2014 02:22 16,2 C 14,4 C 93 % 1010,9 hPa 0,0 l/m 0 min 0 min 0,0 UV-I 0 W/m 10,7 km/h (2 Bft)
10.08.2014 02:24 16,2 C 14,4 C 93 % 1010,9 hPa 0,0 l/m 0 min 0 min 0,0 UV-I 0 W/m 14,2 km/h (3 Bft)
10.08.2014 02:26 16,2 C 15,0 C 93 % 1010,8 hPa 0,0 l/m 0 min 0 min 0,0 UV-I 0 W/m 10,7 km/h (2 Bft)
10.08.2014 02:28 16,2 C 15,0 C 93 % 1010,7 hPa 0,0 l/m 0 min 0 min 0,0 UV-I 0 W/m 0,0 km/h (0 Bft)
10.08.2014 02:30 16,2 C 15,0 C 93 % 1010,8 hPa 0,0 l/m 0 min 0 min 0,0 UV-I 0 W/m 14,2 km/h (3 Bft)
10.08.2014 02:32 16,2 C 15,0 C 93 % 1010,7 hPa 0,0 l/m 0 min 0 min 0,0 UV-I 0 W/m 10,7 km/h (2 Bft)
10.08.2014 02:34 16,2 C 15,0 C 94 % 1010,6 hPa 0,0 l/m 0 min 0 min 0,0 UV-I 0 W/m 14,2 km/h (3 Bft)
10.08.2014 02:36 16,2 C 15,0 C 93 % 1010,7 hPa 0,0 l/m 0 min 0 min 0,0 UV-I 0 W/m 10,7 km/h (2 Bft)
10.08.2014 02:38 16,2 C 15,0 C 93 % 1010,7 hPa 0,0 l/m 0 min 0 min 0,0 UV-I 0 W/m 0,0 km/h (0 Bft)
10.08.2014 02:40 16,2 C 15,0 C 93 % 1010,6 hPa 0,0 l/m 0 min 0 min 0,0 UV-I 0 W/m 10,7 km/h (2 Bft)
10.08.2014 02:42 16,2 C 15,0 C 93 % 1010,7 hPa 0,0 l/m 0 min 0 min 0,0 UV-I 0 W/m 10,7 km/h (2 Bft)
10.08.2014 02:44 16,2 C 15,0 C 93 % 1010,6 hPa 0,0 l/m 0 min 0 min 0,0 UV-I 0 W/m 10,7 km/h (2 Bft)
10.08.2014 02:46 16,2 C 15,0 C 93 % 1010,6 hPa 0,0 l/m 0 min 0 min 0,0 UV-I 0 W/m 7,1 km/h (2 Bft)
10.08.2014 02:48 16,3 C 15,0 C 93 % 1010,6 hPa 0,0 l/m 0 min 0 min 0,0 UV-I 0 W/m 10,7 km/h (2 Bft)
10.08.2014 02:50 16,3 C 15,0 C 93 % 1010,5 hPa 0,0 l/m 0 min 0 min 0,0 UV-I 0 W/m 14,2 km/h (3 Bft)
10.08.2014 02:52 16,3 C 15,0 C 93 % 1010,5 hPa 0,0 l/m 0 min 0 min 0,0 UV-I 0 W/m 17,7 km/h (3 Bft)
10.08.2014 02:54 16,3 C 15,0 C 93 % 1010,5 hPa 0,0 l/m 0 min 0 min 0,0 UV-I 0 W/m 17,7 km/h (3 Bft)
10.08.2014 02:56 16,4 C 15,0 C 93 % 1010,5 hPa 0,0 l/m 0 min 0 min 0,0 UV-I 0 W/m 14,2 km/h (3 Bft)
10.08.2014 02:58 16,4 C 15,0 C 92 % 1010,4 hPa 0,0 l/m 0 min 0 min 0,0 UV-I 0 W/m 10,7 km/h (2 Bft)
10.08.2014 03:00 16,4 C 15,0 C 92 % 1010,3 hPa 0,0 l/m 0 min 0 min 0,0 UV-I 0 W/m 10,7 km/h (2 Bft)
10.08.2014 03:02 16,4 C 15,0 C 92 % 1010,4 hPa 0,0 l/m 0 min 0 min 0,0 UV-I 0 W/m 17,7 km/h (3 Bft)
10.08.2014 03:04 16,5 C 15,0 C 92 % 1010,3 hPa 0,0 l/m 0 min 0 min 0,0 UV-I 0 W/m 17,7 km/h (3 Bft)
10.08.2014 03:06 16,6 C 15,0 C 92 % 1010,3 hPa 0,0 l/m 0 min 0 min 0,0 UV-I 0 W/m 21,3 km/h (4 Bft)
10.08.2014 03:08 16,6 C 15,0 C 92 % 1010,2 hPa 0,0 l/m 0 min 0 min 0,0 UV-I 0 W/m 14,2 km/h (3 Bft)
10.08.2014 03:10 16,6 C 15,6 C 91 % 1010,0 hPa 0,0 l/m 0 min 0 min 0,0 UV-I 0 W/m 17,7 km/h (3 Bft)
10.08.2014 03:12 16,6 C 15,6 C 91 % 1010,0 hPa 0,0 l/m 0 min 0 min 0,0 UV-I 0 W/m 21,3 km/h (4 Bft)
10.08.2014 03:14 16,7 C 15,6 C 91 % 1010,0 hPa 0,0 l/m 0 min 0 min 0,0 UV-I 0 W/m 21,3 km/h (4 Bft)
10.08.2014 03:16 16,7 C 15,6 C 91 % 1010,0 hPa 0,0 l/m 0 min 0 min 0,0 UV-I 0 W/m 17,7 km/h (3 Bft)
10.08.2014 03:18 16,8 C 15,6 C 91 % 1009,9 hPa 0,0 l/m 0 min 0 min 0,0 UV-I 0 W/m 14,2 km/h (3 Bft)
10.08.2014 03:20 16,8 C 15,6 C 91 % 1009,9 hPa 0,0 l/m 0 min 0 min 0,0 UV-I 0 W/m 14,2 km/h (3 Bft)
10.08.2014 03:22 16,8 C 15,6 C 90 % 1010,0 hPa 0,0 l/m 0 min 0 min 0,0 UV-I 0 W/m 10,7 km/h (2 Bft)
10.08.2014 03:24 16,8 C 15,6 C 90 % 1009,9 hPa 0,0 l/m 0 min 0 min 0,0 UV-I 0 W/m 14,2 km/h (3 Bft)
10.08.2014 03:26 16,8 C 15,6 C 90 % 1009,8 hPa 0,0 l/m 0 min 0 min 0,0 UV-I 0 W/m 14,2 km/h (3 Bft)
10.08.2014 03:28 16,8 C 15,6 C 90 % 1009,7 hPa 0,0 l/m 0 min 0 min 0,0 UV-I 0 W/m 21,3 km/h (4 Bft)
10.08.2014 03:30 16,9 C 15,6 C 90 % 1009,7 hPa 0,0 l/m 0 min 0 min 0,0 UV-I 0 W/m 10,7 km/h (2 Bft)
10.08.2014 03:32 16,9 C 15,6 C 90 % 1009,7 hPa 0,0 l/m 0 min 0 min 0,0 UV-I 0 W/m 14,2 km/h (3 Bft)
10.08.2014 03:34 16,9 C 15,6 C 90 % 1009,7 hPa 0,0 l/m 0 min 0 min 0,0 UV-I 0 W/m 14,2 km/h (3 Bft)
10.08.2014 03:36 16,9 C 15,6 C 90 % 1009,7 hPa 0,0 l/m 0 min 0 min 0,0 UV-I 0 W/m 24,7 km/h (4 Bft)
10.08.2014 03:38 16,9 C 15,6 C 90 % 1009,7 hPa 0,0 l/m 0 min 0 min 0,0 UV-I 0 W/m 17,7 km/h (3 Bft)
10.08.2014 03:40 16,9 C 15,6 C 90 % 1009,7 hPa 0,0 l/m 0 min 0 min 0,0 UV-I 0 W/m 14,2 km/h (3 Bft)
10.08.2014 03:42 16,9 C 15,6 C 90 % 1009,7 hPa 0,0 l/m 0 min 0 min 0,0 UV-I 0 W/m 10,7 km/h (2 Bft)
10.08.2014 03:44 16,9 C 15,6 C 90 % 1009,7 hPa 0,0 l/m 0 min 0 min 0,0 UV-I 0 W/m 24,7 km/h (4 Bft)
10.08.2014 03:46 16,9 C 15,6 C 90 % 1009,6 hPa 0,0 l/m 0 min 0 min 0,0 UV-I 0 W/m 17,7 km/h (3 Bft)
10.08.2014 03:48 16,9 C 15,6 C 90 % 1009,7 hPa 0,0 l/m 0 min 0 min 0,0 UV-I 0 W/m 17,7 km/h (3 Bft)
10.08.2014 03:50 16,9 C 15,6 C 90 % 1009,7 hPa 0,0 l/m 0 min 0 min 0,0 UV-I 0 W/m 14,2 km/h (3 Bft)
10.08.2014 03:52 16,9 C 15,6 C 89 % 1009,7 hPa 0,0 l/m 0 min 0 min 0,0 UV-I 0 W/m 17,7 km/h (3 Bft)
10.08.2014 03:54 17,0 C 15,6 C 89 % 1009,6 hPa 0,0 l/m 0 min 0 min 0,0 UV-I 0 W/m 14,2 km/h (3 Bft)
10.08.2014 03:56 17,0 C 15,6 C 89 % 1009,6 hPa 0,0 l/m 0 min 0 min 0,0 UV-I 0 W/m 10,7 km/h (2 Bft)
10.08.2014 03:58 17,0 C 15,6 C 89 % 1009,6 hPa 0,0 l/m 0 min 0 min 0,0 UV-I 0 W/m 14,2 km/h (3 Bft)
10.08.2014 04:00 17,0 C 15,6 C 89 % 1009,5 hPa 0,0 l/m 0 min 0 min 0,0 UV-I 0 W/m 7,1 km/h (2 Bft)
10.08.2014 04:02 17,0 C 15,6 C 89 % 1009,5 hPa 0,0 l/m 0 min 0 min 0,0 UV-I 0 W/m 10,7 km/h (2 Bft)
10.08.2014 04:04 17,0 C 15,6 C 89 % 1009,5 hPa 0,0 l/m 0 min 0 min 0,0 UV-I 0 W/m 0,0 km/h (0 Bft)
10.08.2014 04:06 17,0 C 15,6 C 89 % 1009,4 hPa 0,0 l/m 0 min 0 min 0,0 UV-I 0 W/m 0,0 km/h (0 Bft)
10.08.2014 04:08 17,0 C 15,6 C 89 % 1009,4 hPa 0,0 l/m 0 min 0 min 0,0 UV-I 0 W/m 0,0 km/h (0 Bft)
10.08.2014 04:10 16,9 C 15,6 C 89 % 1009,4 hPa 0,0 l/m 0 min 0 min 0,0 UV-I 0 W/m 0,0 km/h (0 Bft)
10.08.2014 04:12 16,9 C 15,6 C 89 % 1009,4 hPa 0,0 l/m 0 min 0 min 0,0 UV-I 0 W/m 0,0 km/h (0 Bft)
10.08.2014 04:14 16,9 C 15,6 C 89 % 1009,4 hPa 0,0 l/m 0 min 0 min 0,0 UV-I 0 W/m 0,0 km/h (0 Bft)
10.08.2014 04:16 16,9 C 15,6 C 89 % 1009,5 hPa 0,0 l/m 0 min 0 min 0,0 UV-I 0 W/m 0,0 km/h (0 Bft)
10.08.2014 04:18 16,8 C 15,0 C 89 % 1009,4 hPa 0,0 l/m 0 min 0 min 0,0 UV-I 0 W/m 0,0 km/h (0 Bft)
10.08.2014 04:20 16,8 C 15,0 C 90 % 1009,4 hPa 0,0 l/m 0 min 0 min 0,0 UV-I 0 W/m 14,2 km/h (3 Bft)
10.08.2014 04:22 16,8 C 15,0 C 90 % 1009,4 hPa 0,0 l/m 0 min 0 min 0,0 UV-I 0 W/m 7,1 km/h (2 Bft)
10.08.2014 04:24 16,7 C 15,0 C 90 % 1009,3 hPa 0,0 l/m 0 min 0 min 0,0 UV-I 0 W/m 10,7 km/h (2 Bft)
10.08.2014 04:26 16,7 C 15,6 C 90 % 1009,2 hPa 0,0 l/m 0 min 0 min 0,0 UV-I 0 W/m 10,7 km/h (2 Bft)
10.08.2014 04:28 16,7 C 15,6 C 90 % 1009,3 hPa 0,0 l/m 0 min 0 min 0,0 UV-I 0 W/m 10,7 km/h (2 Bft)
10.08.2014 04:30 16,7 C 15,6 C 90 % 1009,2 hPa 0,0 l/m 0 min 0 min 0,0 UV-I 0 W/m 3,5 km/h (1 Bft)
10.08.2014 04:32 16,7 C 15,6 C 90 % 1009,3 hPa 0,0 l/m 0 min 0 min 0,0 UV-I 0 W/m 0,0 km/h (0 Bft)
10.08.2014 04:34 16,7 C 15,0 C 90 % 1009,2 hPa 0,0 l/m 0 min 0 min 0,0 UV-I 0 W/m 0,0 km/h (0 Bft)
10.08.2014 04:36 16,7 C 15,0 C 91 % 1009,2 hPa 0,0 l/m 0 min 0 min 0,0 UV-I 0 W/m 0,0 km/h (0 Bft)
10.08.2014 04:38 16,7 C 15,0 C 92 % 1009,1 hPa 0,0 l/m 0 min 0 min 0,0 UV-I 0 W/m 3,5 km/h (1 Bft)
10.08.2014 04:40 16,7 C 15,0 C 92 % 1009,2 hPa 0,0 l/m 0 min 0 min 0,0 UV-I 0 W/m 0,0 km/h (0 Bft)
10.08.2014 04:42 16,7 C 15,0 C 92 % 1009,2 hPa 0,0 l/m 0 min 0 min 0,0 UV-I 0 W/m 0,0 km/h (0 Bft)
10.08.2014 04:44 16,7 C 15,0 C 90 % 1009,2 hPa 0,0 l/m 0 min 0 min 0,0 UV-I 0 W/m 0,0 km/h (0 Bft)
10.08.2014 04:46 16,6 C 15,0 C 90 % 1009,2 hPa 0,0 l/m 0 min 0 min 0,0 UV-I 0 W/m 0,0 km/h (0 Bft)
10.08.2014 04:48 16,6 C 15,0 C 91 % 1009,2 hPa 0,0 l/m 0 min 0 min 0,0 UV-I 0 W/m 3,5 km/h (1 Bft)
10.08.2014 04:50 16,6 C 15,0 C 91 % 1009,1 hPa 0,0 l/m 0 min 0 min 0,0 UV-I 0 W/m 0,0 km/h (0 Bft)
10.08.2014 04:52 16,6 C 15,0 C 91 % 1009,1 hPa 0,0 l/m 0 min 0 min 0,0 UV-I 0 W/m 0,0 km/h (0 Bft)
10.08.2014 04:54 16,6 C 15,0 C 91 % 1009,1 hPa 0,0 l/m 0 min 0 min 0,0 UV-I 0 W/m 0,0 km/h (0 Bft)
10.08.2014 04:56 16,6 C 15,0 C 91 % 1009,1 hPa 0,0 l/m 0 min 0 min 0,0 UV-I 0 W/m 0,0 km/h (0 Bft)
10.08.2014 04:58 16,6 C 15,0 C 91 % 1009,1 hPa 0,0 l/m 0 min 0 min 0,0 UV-I 0 W/m 3,5 km/h (1 Bft)
10.08.2014 05:00 16,6 C 15,0 C 91 % 1009,1 hPa 0,0 l/m 0 min 0 min 0,0 UV-I 0 W/m 0,0 km/h (0 Bft)
10.08.2014 05:02 16,6 C 15,0 C 91 % 1009,0 hPa 0,0 l/m 0 min 0 min 0,0 UV-I 0 W/m 0,0 km/h (0 Bft)
10.08.2014 05:04 16,6 C 15,6 C 91 % 1009,0 hPa 0,0 l/m 0 min 0 min 0,0 UV-I 0 W/m 7,1 km/h (2 Bft)
10.08.2014 05:06 16,6 C 15,6 C 91 % 1008,9 hPa 0,0 l/m 0 min 0 min 0,0 UV-I 0 W/m 10,7 km/h (2 Bft)
10.08.2014 05:08 16,6 C 15,6 C 91 % 1008,9 hPa 0,0 l/m 0 min 0 min 0,0 UV-I 0 W/m 7,1 km/h (2 Bft)
10.08.2014 05:10 16,6 C 15,0 C 91 % 1008,9 hPa 0,0 l/m 0 min 0 min 0,0 UV-I 0 W/m 7,1 km/h (2 Bft)
10.08.2014 05:12 16,6 C 15,6 C 91 % 1008,9 hPa 0,0 l/m 0 min 0 min 0,0 UV-I 0 W/m 7,1 km/h (2 Bft)
10.08.2014 05:14 16,7 C 15,6 C 90 % 1008,8 hPa 0,0 l/m 0 min 0 min 0,0 UV-I 0 W/m 10,7 km/h (2 Bft)
10.08.2014 05:16 16,7 C 15,6 C 90 % 1008,8 hPa 0,0 l/m 0 min 0 min 0,0 UV-I 0 W/m 7,1 km/h (2 Bft)
10.08.2014 05:18 16,7 C 15,6 C 90 % 1008,8 hPa 0,0 l/m 0 min 0 min 0,0 UV-I 0 W/m 10,7 km/h (2 Bft)
10.08.2014 05:20 16,7 C 15,6 C 90 % 1008,8 hPa 0,0 l/m 0 min 0 min 0,0 UV-I 0 W/m 0,0 km/h (0 Bft)
10.08.2014 05:22 16,8 C 15,6 C 90 % 1008,8 hPa 0,0 l/m 0 min 0 min 0,0 UV-I 0 W/m 7,1 km/h (2 Bft)
10.08.2014 05:24 16,8 C 15,6 C 90 % 1008,8 hPa 0,0 l/m 0 min 0 min 0,0 UV-I 0 W/m 10,7 km/h (2 Bft)
10.08.2014 05:26 16,8 C 15,6 C 90 % 1008,8 hPa 0,0 l/m 0 min 0 min 0,0 UV-I 0 W/m 14,2 km/h (3 Bft)
10.08.2014 05:28 16,8 C 15,6 C 90 % 1008,7 hPa 0,0 l/m 0 min 0 min 0,0 UV-I 0 W/m 14,2 km/h (3 Bft)
10.08.2014 05:30 16,8 C 15,6 C 90 % 1008,6 hPa 0,0 l/m 0 min 0 min 0,0 UV-I 0 W/m 10,7 km/h (2 Bft)
10.08.2014 05:32 16,8 C 15,6 C 90 % 1008,5 hPa 0,0 l/m 0 min 0 min 0,0 UV-I 0 W/m 14,2 km/h (3 Bft)
10.08.2014 05:34 16,8 C 15,6 C 90 % 1008,6 hPa 0,0 l/m 0 min 0 min 0,0 UV-I 0 W/m 14,2 km/h (3 Bft)
10.08.2014 05:36 16,8 C 15,6 C 89 % 1008,5 hPa 0,0 l/m 0 min 0 min 0,0 UV-I 0 W/m 10,7 km/h (2 Bft)
10.08.2014 05:38 16,8 C 15,6 C 89 % 1008,5 hPa 0,0 l/m 0 min 0 min 0,0 UV-I 0 W/m 10,7 km/h (2 Bft)
10.08.2014 05:40 16,8 C 15,6 C 89 % 1008,4 hPa 0,0 l/m 0 min 0 min 0,0 UV-I 0 W/m 0,0 km/h (0 Bft)
10.08.2014 05:42 16,8 C 15,6 C 89 % 1008,4 hPa 0,0 l/m 0 min 0 min 0,0 UV-I 0 W/m 7,1 km/h (2 Bft)
10.08.2014 05:44 16,8 C 15,6 C 89 % 1008,5 hPa 0,0 l/m 0 min 0 min 0,0 UV-I 0 W/m 14,2 km/h (3 Bft)
10.08.2014 05:46 16,8 C 15,6 C 89 % 1008,4 hPa 0,0 l/m 0 min 0 min 0,0 UV-I 0 W/m 17,7 km/h (3 Bft)
10.08.2014 05:51 16,8 C 15,6 C 89 % 1008,4 hPa 0,0 l/m 0 min 0 min 0,0 UV-I 0 W/m 17,7 km/h (3 Bft)
10.08.2014 05:52 16,8 C 15,6 C 89 % 1008,4 hPa 0,0 l/m 0 min 0 min 0,0 UV-I 0 W/m 14,2 km/h (3 Bft)
10.08.2014 05:54 16,8 C 15,6 C 89 % 1008,4 hPa 0,0 l/m 0 min 0 min 0,0 UV-I 0 W/m 17,7 km/h (3 Bft)
10.08.2014 05:56 16,8 C 15,6 C 89 % 1008,4 hPa 0,0 l/m 0 min 0 min 0,0 UV-I 0 W/m 21,3 km/h (4 Bft)
10.08.2014 05:58 16,8 C 15,6 C 89 % 1008,4 hPa 0,0 l/m 0 min 0 min 0,0 UV-I 0 W/m 24,7 km/h (4 Bft)
10.08.2014 06:00 16,8 C 15,6 C 89 % 1008,3 hPa 0,0 l/m 0 min 0 min 0,0 UV-I 0 W/m 17,7 km/h (3 Bft)
10.08.2014 06:02 16,8 C 15,6 C 89 % 1008,3 hPa 0,0 l/m 0 min 0 min 0,0 UV-I 0 W/m 24,7 km/h (4 Bft)
10.08.2014 06:05 16,7 C 15,6 C 89 % 1008,2 hPa 0,0 l/m 0 min 0 min 0,0 UV-I 0 W/m 14,2 km/h (3 Bft)
10.08.2014 06:06 16,7 C 15,6 C 89 % 1008,2 hPa 0,0 l/m 0 min 0 min 0,0 UV-I 0 W/m 17,7 km/h (3 Bft)
10.08.2014 06:08 16,7 C 15,6 C 89 % 1008,3 hPa 0,0 l/m 0 min 0 min 0,0 UV-I 0 W/m 24,7 km/h (4 Bft)
10.08.2014 06:10 16,7 C 15,6 C 89 % 1008,5 hPa 0,0 l/m 0 min 0 min 0,0 UV-I 0 W/m 10,7 km/h (2 Bft)
10.08.2014 06:12 16,6 C 15,0 C 89 % 1008,4 hPa 0,0 l/m 0 min 0 min 0,0 UV-I 0 W/m 17,7 km/h (3 Bft)
10.08.2014 06:14 16,6 C 15,0 C 89 % 1008,4 hPa 0,0 l/m 0 min 0 min 0,0 UV-I 0 W/m 14,2 km/h (3 Bft)
10.08.2014 06:16 16,6 C 15,0 C 89 % 1008,4 hPa 0,0 l/m 0 min 0 min 0,0 UV-I 0 W/m 17,7 km/h (3 Bft)
10.08.2014 06:18 16,5 C 15,0 C 89 % 1008,4 hPa 0,0 l/m 0 min 0 min 0,0 UV-I 0 W/m 21,3 km/h (4 Bft)
10.08.2014 06:20 16,5 C 15,0 C 89 % 1008,5 hPa 0,0 l/m 0 min 0 min 0,0 UV-I 6 W/m 21,3 km/h (4 Bft)
10.08.2014 06:22 16,4 C 15,0 C 90 % 1008,4 hPa 0,0 l/m 0 min 0 min 0,0 UV-I 7 W/m 17,7 km/h (3 Bft)
10.08.2014 06:24 16,4 C 15,0 C 90 % 1008,4 hPa 0,0 l/m 0 min 0 min 0,0 UV-I 9 W/m 14,2 km/h (3 Bft)
10.08.2014 06:26 16,3 C 15,0 C 90 % 1008,4 hPa 0,0 l/m 0 min 0 min 0,0 UV-I 11 W/m 10,7 km/h (2 Bft)
10.08.2014 06:28 16,3 C 15,0 C 90 % 1008,3 hPa 0,0 l/m 0 min 0 min 0,0 UV-I 12 W/m 17,7 km/h (3 Bft)
10.08.2014 06:30 16,3 C 15,0 C 90 % 1008,4 hPa 0,0 l/m 0 min 0 min 0,0 UV-I 13 W/m 14,2 km/h (3 Bft)
10.08.2014 06:32 16,3 C 15,0 C 90 % 1008,4 hPa 0,0 l/m 0 min 0 min 0,0 UV-I 14 W/m 14,2 km/h (3 Bft)
10.08.2014 06:34 16,3 C 15,0 C 90 % 1008,3 hPa 0,0 l/m 0 min 0 min 0,0 UV-I 15 W/m 14,2 km/h (3 Bft)
10.08.2014 06:36 16,3 C 15,0 C 90 % 1008,3 hPa 0,0 l/m 0 min 0 min 0,0 UV-I 18 W/m 17,7 km/h (3 Bft)
10.08.2014 06:38 16,3 C 15,0 C 90 % 1008,4 hPa 0,0 l/m 0 min 0 min 0,0 UV-I 19 W/m 14,2 km/h (3 Bft)
10.08.2014 06:40 16,3 C 15,0 C 90 % 1008,3 hPa 0,0 l/m 0 min 0 min 0,0 UV-I 23 W/m 17,7 km/h (3 Bft)
10.08.2014 06:42 16,3 C 15,0 C 90 % 1008,3 hPa 0,0 l/m 0 min 0 min 0,0 UV-I 26 W/m 17,7 km/h (3 Bft)
10.08.2014 06:44 16,3 C 15,0 C 90 % 1008,3 hPa 0,0 l/m 0 min 0 min 0,0 UV-I 29 W/m 14,2 km/h (3 Bft)
10.08.2014 06:46 16,3 C 15,0 C 91 % 1008,3 hPa 0,0 l/m 0 min 0 min 0,0 UV-I 32 W/m 0,0 km/h (0 Bft)
10.08.2014 06:48 16,2 C 15,0 C 90 % 1008,2 hPa 0,0 l/m 0 min 0 min 0,0 UV-I 33 W/m 10,7 km/h (2 Bft)
10.08.2014 06:50 16,2 C 15,0 C 90 % 1008,2 hPa 0,0 l/m 0 min 0 min 0,0 UV-I 33 W/m 17,7 km/h (3 Bft)
10.08.2014 06:52 16,2 C 15,0 C 91 % 1008,2 hPa 0,0 l/m 0 min 0 min 0,0 UV-I 36 W/m 10,7 km/h (2 Bft)
10.08.2014 06:54 16,2 C 15,0 C 91 % 1008,2 hPa 0,0 l/m 0 min 0 min 0,0 UV-I 42 W/m 7,1 km/h (2 Bft)
10.08.2014 06:56 16,2 C 15,0 C 91 % 1008,3 hPa 0,0 l/m 2 min 0 min 0,0 UV-I 61 W/m 14,2 km/h (3 Bft)
10.08.2014 06:58 16,2 C 15,0 C 91 % 1008,2 hPa 0,0 l/m 2 min 0 min 0,0 UV-I 69 W/m 21,3 km/h (4 Bft)
10.08.2014 07:00 16,2 C 15,0 C 91 % 1008,1 hPa 0,0 l/m 2 min 0 min 0,0 UV-I 70 W/m 24,7 km/h (4 Bft)
10.08.2014 07:02 16,2 C 15,0 C 91 % 1008,1 hPa 0,0 l/m 2 min 0 min 0,0 UV-I 56 W/m 14,2 km/h (3 Bft)
10.08.2014 07:04 16,2 C 15,0 C 91 % 1008,1 hPa 0,0 l/m 0 min 0 min 0,0 UV-I 48 W/m 17,7 km/h (3 Bft)
10.08.2014 07:06 16,2 C 15,0 C 91 % 1008,1 hPa 0,0 l/m 0 min 0 min 0,0 UV-I 51 W/m 14,2 km/h (3 Bft)
10.08.2014 07:08 16,2 C 15,0 C 91 % 1008,1 hPa 0,0 l/m 0 min 0 min 0,0 UV-I 54 W/m 17,7 km/h (3 Bft)
10.08.2014 07:10 16,3 C 15,0 C 90 % 1008,0 hPa 0,0 l/m 0 min 0 min 0,0 UV-I 56 W/m 17,7 km/h (3 Bft)
10.08.2014 07:12 16,3 C 15,0 C 91 % 1008,0 hPa 0,0 l/m 0 min 0 min 0,0 UV-I 59 W/m 14,2 km/h (3 Bft)
10.08.2014 07:14 16,3 C 15,0 C 91 % 1008,0 hPa 0,0 l/m 0 min 0 min 0,0 UV-I 62 W/m 10,7 km/h (2 Bft)
10.08.2014 07:16 16,3 C 15,0 C 91 % 1008,0 hPa 0,0 l/m 0 min 0 min 0,0 UV-I 65 W/m 21,3 km/h (4 Bft)
10.08.2014 07:18 16,3 C 15,0 C 91 % 1007,9 hPa 0,0 l/m 0 min 0 min 0,0 UV-I 71 W/m 28,2 km/h (4 Bft)
10.08.2014 07:20 16,3 C 15,0 C 91 % 1007,9 hPa 0,0 l/m 2 min 0 min 0,0 UV-I 102 W/m 17,7 km/h (3 Bft)
10.08.2014 07:22 16,4 C 15,0 C 91 % 1007,9 hPa 0,0 l/m 2 min 0 min 0,0 UV-I 111 W/m 14,2 km/h (3 Bft)
10.08.2014 07:24 16,4 C 15,0 C 91 % 1007,9 hPa 0,0 l/m 2 min 0 min 0,0 UV-I 119 W/m 14,2 km/h (3 Bft)
10.08.2014 07:26 16,4 C 15,6 C 90 % 1007,9 hPa 0,0 l/m 2 min 0 min 0,0 UV-I 94 W/m 14,2 km/h (3 Bft)
10.08.2014 07:28 16,5 C 15,6 C 90 % 1007,9 hPa 0,0 l/m 0 min 0 min 0,0 UV-I 82 W/m 28,2 km/h (4 Bft)
10.08.2014 07:30 16,5 C 15,6 C 90 % 1007,8 hPa 0,0 l/m 0 min 0 min 0,0 UV-I 82 W/m 17,7 km/h (3 Bft)
10.08.2014 07:32 16,6 C 15,6 C 90 % 1007,8 hPa 0,0 l/m 0 min 0 min 0,0 UV-I 84 W/m 21,3 km/h (4 Bft)
10.08.2014 07:34 16,6 C 15,6 C 90 % 1007,8 hPa 0,0 l/m 0 min 0 min 0,0 UV-I 90 W/m 24,7 km/h (4 Bft)
10.08.2014 07:36 16,6 C 15,6 C 90 % 1007,8 hPa 0,0 l/m 2 min 0 min 0,0 UV-I 97 W/m 24,7 km/h (4 Bft)
10.08.2014 07:38 16,7 C 15,6 C 90 % 1007,8 hPa 0,0 l/m 2 min 0 min 0,0 UV-I 120 W/m 24,7 km/h (4 Bft)
10.08.2014 07:40 16,7 C 15,6 C 90 % 1007,8 hPa 0,0 l/m 2 min 0 min 0,0 UV-I 133 W/m 24,7 km/h (4 Bft)
10.08.2014 07:42 16,7 C 15,6 C 90 % 1007,8 hPa 0,0 l/m 2 min 0 min 0,0 UV-I 149 W/m 21,3 km/h (4 Bft)
10.08.2014 07:44 16,8 C 15,6 C 89 % 1007,8 hPa 0,0 l/m 2 min 0 min 0,0 UV-I 153 W/m 21,3 km/h (4 Bft)
10.08.2014 07:46 16,8 C 15,6 C 89 % 1007,8 hPa 0,0 l/m 2 min 0 min 0,0 UV-I 142 W/m 17,7 km/h (3 Bft)
10.08.2014 07:48 16,9 C 15,6 C 89 % 1007,7 hPa 0,0 l/m 2 min 0 min 0,0 UV-I 132 W/m 14,2 km/h (3 Bft)
10.08.2014 07:50 16,9 C 16,1 C 89 % 1007,7 hPa 0,0 l/m 2 min 0 min 0,0 UV-I 153 W/m 21,3 km/h (4 Bft)
10.08.2014 07:52 17,0 C 16,1 C 89 % 1007,6 hPa 0,0 l/m 2 min 0 min 0,0 UV-I 164 W/m 28,2 km/h (4 Bft)
10.08.2014 07:54 17,0 C 16,1 C 89 % 1007,6 hPa 0,0 l/m 2 min 0 min 0,0 UV-I 166 W/m 21,3 km/h (4 Bft)
10.08.2014 07:56 17,1 C 16,1 C 89 % 1007,5 hPa 0,0 l/m 2 min 0 min 0,0 UV-I 162 W/m 21,3 km/h (4 Bft)
10.08.2014 07:58 17,1 C 16,1 C 89 % 1007,6 hPa 0,0 l/m 2 min 0 min 0,0 UV-I 166 W/m 21,3 km/h (4 Bft)
10.08.2014 08:00 17,1 C 16,1 C 88 % 1007,5 hPa 0,0 l/m 2 min 0 min 0,0 UV-I 164 W/m 21,3 km/h (4 Bft)
10.08.2014 08:02 17,1 C 16,1 C 88 % 1007,6 hPa 0,0 l/m 2 min 0 min 0,0 UV-I 166 W/m 31,7 km/h (5 Bft)
10.08.2014 08:04 17,2 C 16,1 C 88 % 1007,5 hPa 0,0 l/m 2 min 0 min 0,0 UV-I 159 W/m 21,3 km/h (4 Bft)
10.08.2014 08:06 17,2 C 16,1 C 88 % 1007,4 hPa 0,0 l/m 0 min 0 min 0,0 UV-I 116 W/m 24,7 km/h (4 Bft)
10.08.2014 08:08 17,2 C 16,1 C 88 % 1007,3 hPa 0,0 l/m 0 min 0 min 0,0 UV-I 83 W/m 17,7 km/h (3 Bft)
10.08.2014 08:10 17,3 C 16,1 C 88 % 1007,3 hPa 0,0 l/m 0 min 0 min 0,0 UV-I 89 W/m 14,2 km/h (3 Bft)
10.08.2014 08:12 17,2 C 16,1 C 88 % 1007,3 hPa 0,0 l/m 0 min 0 min 0,0 UV-I 132 W/m 17,7 km/h (3 Bft)
10.08.2014 08:14 17,3 C 16,1 C 88 % 1007,3 hPa 0,0 l/m 2 min 0 min 0,0 UV-I 202 W/m 21,3 km/h (4 Bft)
10.08.2014 08:16 17,3 C 16,1 C 88 % 1007,3 hPa 0,0 l/m 2 min 0 min 0,0 UV-I 217 W/m 31,7 km/h (5 Bft)
10.08.2014 08:18 17,3 C 16,1 C 88 % 1007,3 hPa 0,0 l/m 2 min 0 min 0,0 UV-I 189 W/m 21,3 km/h (4 Bft)
10.08.2014 08:20 17,4 C 16,1 C 88 % 1007,3 hPa 0,0 l/m 2 min 0 min 0,0 UV-I 180 W/m 35,4 km/h (5 Bft)
10.08.2014 08:22 17,4 C 16,1 C 87 % 1007,3 hPa 0,0 l/m 2 min 0 min 0,0 UV-I 208 W/m 38,9 km/h (6 Bft)
10.08.2014 08:24 17,5 C 16,1 C 87 % 1007,2 hPa 0,0 l/m 2 min 0 min 0,0 UV-I 215 W/m 28,2 km/h (4 Bft)
10.08.2014 08:26 17,6 C 16,1 C 87 % 1007,3 hPa 0,0 l/m 2 min 0 min 0,0 UV-I 211 W/m 38,9 km/h (6 Bft)
10.08.2014 08:28 17,6 C 16,1 C 87 % 1007,3 hPa 0,0 l/m 2 min 0 min 0,0 UV-I 250 W/m 17,7 km/h (3 Bft)
10.08.2014 08:30 17,7 C 16,7 C 87 % 1007,2 hPa 0,0 l/m 2 min 0 min 0,0 UV-I 290 W/m 28,2 km/h (4 Bft)
10.08.2014 08:32 17,8 C 16,7 C 86 % 1007,2 hPa 0,0 l/m 2 min 0 min 0,0 UV-I 247 W/m 17,7 km/h (3 Bft)
10.08.2014 08:34 17,8 C 16,7 C 86 % 1007,2 hPa 0,0 l/m 2 min 0 min 0,0 UV-I 274 W/m 31,7 km/h (5 Bft)
10.08.2014 08:36 17,9 C 16,7 C 86 % 1007,2 hPa 0,0 l/m 2 min 0 min 0,0 UV-I 279 W/m 46,0 km/h (6 Bft)
10.08.2014 08:38 18,0 C 16,7 C 86 % 1007,0 hPa 0,0 l/m 2 min 0 min 0,0 UV-I 316 W/m 35,4 km/h (5 Bft)
10.08.2014 08:40 18,1 C 16,7 C 86 % 1007,1 hPa 0,0 l/m 2 min 0 min 0,0 UV-I 328 W/m 28,2 km/h (4 Bft)
10.08.2014 08:42 18,1 C 16,7 C 85 % 1007,0 hPa 0,0 l/m 2 min 0 min 0,0 UV-I 331 W/m 28,2 km/h (4 Bft)
10.08.2014 08:44 18,2 C 16,7 C 85 % 1006,9 hPa 0,0 l/m 2 min 0 min 0,0 UV-I 333 W/m 24,7 km/h (4 Bft)
10.08.2014 08:46 18,3 C 16,7 C 85 % 1007,0 hPa 0,0 l/m 2 min 0 min 0,0 UV-I 341 W/m 35,4 km/h (5 Bft)
10.08.2014 08:48 18,4 C 17,2 C 85 % 1006,9 hPa 0,0 l/m 2 min 0 min 0,0 UV-I 295 W/m 28,2 km/h (4 Bft)
10.08.2014 08:50 18,5 C 17,2 C 85 % 1006,8 hPa 0,0 l/m 2 min 0 min 0,0 UV-I 326 W/m 28,2 km/h (4 Bft)
10.08.2014 08:52 18,6 C 17,2 C 84 % 1006,8 hPa 0,0 l/m 2 min 0 min 0,0 UV-I 241 W/m 38,9 km/h (6 Bft)
10.08.2014 08:54 18,6 C 17,2 C 84 % 1006,8 hPa 0,0 l/m 2 min 0 min 0,0 UV-I 246 W/m 46,0 km/h (6 Bft)
10.08.2014 08:56 18,6 C 17,2 C 84 % 1006,7 hPa 0,0 l/m 2 min 0 min 0,0 UV-I 322 W/m 38,9 km/h (6 Bft)
10.08.2014 08:58 18,7 C 17,2 C 84 % 1006,8 hPa 0,0 l/m 2 min 0 min 0,0 UV-I 344 W/m 35,4 km/h (5 Bft)
10.08.2014 09:00 18,7 C 17,2 C 84 % 1006,7 hPa 0,0 l/m 2 min 0 min 0,5 UV-I 363 W/m 24,7 km/h (4 Bft)
10.08.2014 09:02 18,8 C 17,2 C 84 % 1006,7 hPa 0,0 l/m 2 min 0 min 0,5 UV-I 371 W/m 38,9 km/h (6 Bft)
10.08.2014 09:04 18,9 C 17,2 C 84 % 1006,7 hPa 0,0 l/m 2 min 0 min 0,6 UV-I 368 W/m 28,2 km/h (4 Bft)
10.08.2014 09:06 19,0 C 17,2 C 84 % 1006,6 hPa 0,0 l/m 2 min 0 min 0,6 UV-I 388 W/m 31,7 km/h (5 Bft)
10.08.2014 09:08 19,1 C 17,8 C 83 % 1006,6 hPa 0,0 l/m 2 min 0 min 0,6 UV-I 389 W/m 31,7 km/h (5 Bft)
10.08.2014 09:10 19,2 C 17,8 C 83 % 1006,6 hPa 0,0 l/m 2 min 0 min 0,7 UV-I 392 W/m 31,7 km/h (5 Bft)
10.08.2014 09:12 19,3 C 17,8 C 83 % 1006,6 hPa 0,0 l/m 2 min 0 min 0,7 UV-I 395 W/m 46,0 km/h (6 Bft)
10.08.2014 09:14 19,4 C 17,8 C 82 % 1006,6 hPa 0,0 l/m 2 min 0 min 0,7 UV-I 398 W/m 46,0 km/h (6 Bft)
10.08.2014 09:16 19,5 C 17,8 C 82 % 1006,5 hPa 0,0 l/m 2 min 0 min 0,7 UV-I 402 W/m 35,4 km/h (5 Bft)
10.08.2014 09:18 19,7 C 17,8 C 82 % 1006,6 hPa 0,0 l/m 2 min 0 min 0,8 UV-I 405 W/m 42,4 km/h (6 Bft)
10.08.2014 09:20 19,7 C 17,8 C 81 % 1006,5 hPa 0,0 l/m 2 min 0 min 0,8 UV-I 413 W/m 38,9 km/h (6 Bft)
10.08.2014 09:22 19,8 C 18,3 C 81 % 1006,4 hPa 0,0 l/m 2 min 0 min 0,9 UV-I 414 W/m 38,9 km/h (6 Bft)
10.08.2014 09:24 19,9 C 18,3 C 81 % 1006,4 hPa 0,0 l/m 2 min 0 min 0,8 UV-I 435 W/m 38,9 km/h (6 Bft)
10.08.2014 09:26 20,0 C 18,3 C 81 % 1006,3 hPa 0,0 l/m 2 min 0 min 0,8 UV-I 388 W/m 42,4 km/h (6 Bft)
10.08.2014 09:28 20,1 C 18,3 C 80 % 1006,3 hPa 0,0 l/m 2 min 0 min 1,0 UV-I 354 W/m 38,9 km/h (6 Bft)
10.08.2014 09:30 20,1 C 18,9 C 80 % 1006,3 hPa 0,0 l/m 2 min 0 min 0,9 UV-I 328 W/m 49,5 km/h (6 Bft)
10.08.2014 09:32 20,2 C 18,9 C 80 % 1006,3 hPa 0,0 l/m 2 min 0 min 1,0 UV-I 326 W/m 38,9 km/h (6 Bft)
10.08.2014 09:34 20,2 C 18,9 C 80 % 1006,3 hPa 0,0 l/m 2 min 0 min 1,0 UV-I 482 W/m 42,4 km/h (6 Bft)
10.08.2014 09:36 20,3 C 18,9 C 81 % 1006,3 hPa 0,0 l/m 2 min 0 min 1,2 UV-I 535 W/m 46,0 km/h (6 Bft)
10.08.2014 09:38 20,3 C 18,9 C 80 % 1006,3 hPa 0,0 l/m 2 min 0 min 1,1 UV-I 559 W/m 49,5 km/h (6 Bft)
10.08.2014 09:40 20,4 C 18,9 C 80 % 1006,3 hPa 0,0 l/m 2 min 0 min 1,3 UV-I 506 W/m 31,7 km/h (5 Bft)
10.08.2014 09:42 20,6 C 19,4 C 80 % 1006,3 hPa 0,0 l/m 2 min 0 min 1,3 UV-I 512 W/m 28,2 km/h (4 Bft)
10.08.2014 09:44 20,8 C 20,0 C 80 % 1006,3 hPa 0,0 l/m 2 min 0 min 1,3 UV-I 440 W/m 42,4 km/h (6 Bft)
10.08.2014 09:46 20,9 C 20,0 C 79 % 1006,3 hPa 0,0 l/m 2 min 0 min 1,4 UV-I 424 W/m 60,2 km/h (7 Bft)
10.08.2014 09:48 20,9 C 20,0 C 78 % 1006,2 hPa 0,0 l/m 2 min 0 min 1,1 UV-I 386 W/m 49,5 km/h (6 Bft)
10.08.2014 09:50 20,8 C 20,0 C 78 % 1006,2 hPa 0,0 l/m 2 min 0 min 1,0 UV-I 286 W/m 67,1 km/h (8 Bft)
10.08.2014 09:52 20,7 C 20,0 C 78 % 1006,3 hPa 0,0 l/m 2 min 0 min 1,0 UV-I 316 W/m 56,5 km/h (7 Bft)
10.08.2014 09:54 20,7 C 20,0 C 79 % 1006,3 hPa 0,0 l/m 2 min 0 min 1,0 UV-I 294 W/m 53,0 km/h (7 Bft)
10.08.2014 09:56 20,6 C 20,6 C 79 % 1006,3 hPa 0,0 l/m 2 min 0 min 1,4 UV-I 402 W/m 49,5 km/h (6 Bft)
10.08.2014 09:58 20,8 C 21,7 C 80 % 1006,2 hPa 0,0 l/m 2 min 0 min 1,7 UV-I 564 W/m 46,0 km/h (6 Bft)
10.08.2014 10:00 21,0 C 21,7 C 79 % 1006,2 hPa 0,0 l/m 2 min 0 min 1,4 UV-I 403 W/m 53,0 km/h (7 Bft)
10.08.2014 10:02 21,1 C 21,1 C 79 % 1006,2 hPa 0,0 l/m 2 min 0 min 1,1 UV-I 283 W/m 28,2 km/h (4 Bft)
10.08.2014 10:04 21,1 C 20,6 C 79 % 1006,2 hPa 0,0 l/m 2 min 0 min 1,1 UV-I 305 W/m 46,0 km/h (6 Bft)
10.08.2014 10:06 21,1 C 22,2 C 79 % 1006,2 hPa 0,0 l/m 2 min 0 min 1,7 UV-I 450 W/m 38,9 km/h (6 Bft)
10.08.2014 10:08 21,1 C 21,7 C 78 % 1006,2 hPa 0,0 l/m 2 min 0 min 1,5 UV-I 577 W/m 42,4 km/h (6 Bft)
10.08.2014 10:10 21,1 C 22,2 C 78 % 1006,2 hPa 0,0 l/m 2 min 0 min 1,6 UV-I 357 W/m 42,4 km/h (6 Bft)
10.08.2014 10:12 21,3 C 22,8 C 78 % 1006,4 hPa 0,0 l/m 2 min 0 min 1,9 UV-I 644 W/m 49,5 km/h (6 Bft)
10.08.2014 10:14 21,5 C 23,3 C 78 % 1006,4 hPa 0,0 l/m 2 min 0 min 1,9 UV-I 668 W/m 38,9 km/h (6 Bft)
10.08.2014 10:16 21,7 C 23,9 C 78 % 1006,3 hPa 0,0 l/m 2 min 0 min 2,1 UV-I 688 W/m 46,0 km/h (6 Bft)
10.08.2014 10:18 22,0 C 24,4 C 78 % 1006,2 hPa 0,0 l/m 2 min 0 min 2,1 UV-I 687 W/m 38,9 km/h (6 Bft)
10.08.2014 10:20 22,2 C 25,6 C 77 % 1006,1 hPa 0,0 l/m 2 min 0 min 2,1 UV-I 661 W/m 46,0 km/h (6 Bft)
10.08.2014 10:22 22,3 C 25,6 C 76 % 1006,1 hPa 0,0 l/m 2 min 0 min 2,1 UV-I 596 W/m 42,4 km/h (6 Bft)
10.08.2014 10:24 22,4 C 25,0 C 76 % 1006,0 hPa 0,0 l/m 2 min 0 min 1,8 UV-I 628 W/m 42,4 km/h (6 Bft)
10.08.2014 10:26 22,4 C 25,0 C 76 % 1006,1 hPa 0,0 l/m 2 min 0 min 2,1 UV-I 625 W/m 35,4 km/h (5 Bft)
10.08.2014 10:28 22,5 C 25,0 C 76 % 1006,0 hPa 0,0 l/m 2 min 0 min 2,1 UV-I 599 W/m 38,9 km/h (6 Bft)
10.08.2014 10:30 22,5 C 24,4 C 76 % 1006,0 hPa 0,0 l/m 2 min 0 min 1,9 UV-I 488 W/m 35,4 km/h (5 Bft)
10.08.2014 10:32 22,6 C 24,4 C 76 % 1006,0 hPa 0,0 l/m 2 min 0 min 2,2 UV-I 543 W/m 35,4 km/h (5 Bft)
10.08.2014 10:34 22,7 C 24,4 C 76 % 1006,0 hPa 0,0 l/m 2 min 0 min 2,2 UV-I 752 W/m 38,9 km/h (6 Bft)
10.08.2014 10:36 22,7 C 23,3 C 76 % 1005,9 hPa 0,0 l/m 2 min 0 min 1,7 UV-I 472 W/m 38,9 km/h (6 Bft)
10.08.2014 10:38 22,6 C 22,8 C 76 % 1006,0 hPa 0,0 l/m 2 min 0 min 1,4 UV-I 335 W/m 28,2 km/h (4 Bft)
10.08.2014 10:40 22,5 C 22,2 C 76 % 1006,2 hPa 0,0 l/m 0 min 0 min 1,0 UV-I 245 W/m 42,4 km/h (6 Bft)
10.08.2014 10:42 22,3 C 21,7 C 77 % 1006,1 hPa 0,0 l/m 0 min 0 min 1,1 UV-I 250 W/m 46,0 km/h (6 Bft)
10.08.2014 10:44 22,2 C 21,7 C 76 % 1006,0 hPa 0,0 l/m 0 min 0 min 1,1 UV-I 250 W/m 63,7 km/h (8 Bft)
10.08.2014 10:46 22,0 C 21,1 C 77 % 1006,0 hPa 0,0 l/m 0 min 0 min 1,1 UV-I 250 W/m 35,4 km/h (5 Bft)
10.08.2014 10:48 21,9 C 21,1 C 77 % 1006,0 hPa 0,0 l/m 0 min 0 min 1,1 UV-I 251 W/m 38,9 km/h (6 Bft)
10.08.2014 10:50 21,9 C 21,1 C 78 % 1005,9 hPa 0,0 l/m 0 min 0 min 1,1 UV-I 262 W/m 35,4 km/h (5 Bft)
10.08.2014 10:52 21,9 C 21,7 C 79 % 1005,9 hPa 0,0 l/m 0 min 0 min 1,3 UV-I 281 W/m 46,0 km/h (6 Bft)
10.08.2014 10:54 22,1 C 21,7 C 79 % 1005,9 hPa 0,0 l/m 0 min 0 min 1,6 UV-I 316 W/m 42,4 km/h (6 Bft)
10.08.2014 10:56 22,1 C 21,7 C 78 % 1006,0 hPa 0,0 l/m 2 min 0 min 1,8 UV-I 342 W/m 31,7 km/h (5 Bft)
10.08.2014 10:58 22,3 C 22,2 C 79 % 1005,9 hPa 0,0 l/m 2 min 0 min 2,1 UV-I 430 W/m 28,2 km/h (4 Bft)
10.08.2014 11:00 22,4 C 22,2 C 78 % 1005,9 hPa 0,0 l/m 2 min 0 min 2,0 UV-I 427 W/m 42,4 km/h (6 Bft)
10.08.2014 11:02 22,5 C 22,2 C 78 % 1005,9 hPa 0,0 l/m 2 min 0 min 1,9 UV-I 415 W/m 42,4 km/h (6 Bft)
10.08.2014 11:04 22,6 C 22,8 C 77 % 1005,9 hPa 0,0 l/m 2 min 0 min 2,1 UV-I 469 W/m 42,4 km/h (6 Bft)
10.08.2014 11:06 22,7 C 22,8 C 77 % 1005,8 hPa 0,0 l/m 2 min 0 min 1,7 UV-I 376 W/m 38,9 km/h (6 Bft)
10.08.2014 11:08 22,7 C 22,2 C 76 % 1005,7 hPa 0,0 l/m 2 min 0 min 1,6 UV-I 339 W/m 35,4 km/h (5 Bft)
10.08.2014 11:10 22,6 C 22,2 C 76 % 1005,7 hPa 0,0 l/m 2 min 0 min 1,7 UV-I 346 W/m 46,0 km/h (6 Bft)
10.08.2014 11:12 22,6 C 22,2 C 77 % 1005,7 hPa 0,0 l/m 2 min 0 min 1,6 UV-I 341 W/m 24,7 km/h (4 Bft)
10.08.2014 11:14 22,6 C 22,2 C 77 % 1005,6 hPa 0,0 l/m 0 min 0 min 1,5 UV-I 315 W/m 28,2 km/h (4 Bft)
10.08.2014 11:16 22,4 C 22,2 C 77 % 1005,6 hPa 0,0 l/m 0 min 0 min 1,6 UV-I 332 W/m 31,7 km/h (5 Bft)
10.08.2014 11:18 22,5 C 22,2 C 78 % 1005,6 hPa 0,0 l/m 2 min 0 min 1,8 UV-I 358 W/m 42,4 km/h (6 Bft)
10.08.2014 11:20 22,6 C 22,8 C 78 % 1005,6 hPa 0,0 l/m 2 min 0 min 1,9 UV-I 376 W/m 28,2 km/h (4 Bft)
10.08.2014 11:22 22,7 C 22,8 C 78 % 1005,6 hPa 0,0 l/m 0 min 0 min 1,8 UV-I 326 W/m 24,7 km/h (4 Bft)
10.08.2014 11:24 22,7 C 22,2 C 77 % 1005,5 hPa 0,0 l/m 0 min 0 min 1,7 UV-I 318 W/m 31,7 km/h (5 Bft)
10.08.2014 11:26 22,6 C 22,2 C 77 % 1005,5 hPa 0,0 l/m 0 min 0 min 1,9 UV-I 328 W/m 46,0 km/h (6 Bft)
10.08.2014 11:28 22,6 C 20,0 C 77 % 1005,5 hPa 0,0 l/m 0 min 0 min 2,4 UV-I 339 W/m 42,4 km/h (6 Bft)
10.08.2014 11:30 22,6 C 20,0 C 77 % 1005,5 hPa 0,0 l/m 2 min 0 min 2,6 UV-I 542 W/m 56,5 km/h (7 Bft)
10.08.2014 11:32 22,7 C 20,0 C 77 % 1005,5 hPa 0,0 l/m 2 min 0 min 2,1 UV-I 464 W/m 56,5 km/h (7 Bft)
10.08.2014 11:34 22,6 C 20,0 C 76 % 1005,4 hPa 0,0 l/m 2 min 0 min 1,9 UV-I 354 W/m 49,5 km/h (6 Bft)
10.08.2014 11:36 22,4 C 19,4 C 76 % 1005,4 hPa 0,0 l/m 0 min 0 min 1,9 UV-I 345 W/m 46,0 km/h (6 Bft)
10.08.2014 11:38 22,4 C 20,0 C 77 % 1005,4 hPa 0,0 l/m 2 min 0 min 2,7 UV-I 483 W/m 53,0 km/h (7 Bft)
10.08.2014 11:40 22,5 C 20,0 C 77 % 1005,4 hPa 0,0 l/m 2 min 0 min 2,4 UV-I 453 W/m 49,5 km/h (6 Bft)
10.08.2014 11:42 22,6 C 20,6 C 77 % 1005,3 hPa 0,0 l/m 2 min 0 min 2,2 UV-I 411 W/m 42,4 km/h (6 Bft)
10.08.2014 11:44 22,6 C 20,6 C 78 % 1005,3 hPa 0,0 l/m 0 min 0 min 1,7 UV-I 333 W/m 46,0 km/h (6 Bft)
10.08.2014 11:46 22,6 C 20,0 C 77 % 1005,3 hPa 0,0 l/m 0 min 0 min 1,5 UV-I 298 W/m 38,9 km/h (6 Bft)
10.08.2014 11:48 22,4 C 20,0 C 77 % 1005,2 hPa 0,0 l/m 0 min 0 min 1,4 UV-I 267 W/m 46,0 km/h (6 Bft)
10.08.2014 11:50 22,3 C 20,0 C 77 % 1005,2 hPa 0,0 l/m 0 min 0 min 1,2 UV-I 239 W/m 49,5 km/h (6 Bft)
10.08.2014 11:52 22,3 C 20,0 C 78 % 1005,2 hPa 0,0 l/m 0 min 0 min 1,2 UV-I 222 W/m 38,9 km/h (6 Bft)
10.08.2014 11:54 22,2 C 20,0 C 78 % 1005,1 hPa 0,0 l/m 0 min 0 min 1,1 UV-I 214 W/m 53,0 km/h (7 Bft)
10.08.2014 11:56 22,1 C 20,0 C 78 % 1005,1 hPa 0,0 l/m 0 min 0 min 1,3 UV-I 234 W/m 42,4 km/h (6 Bft)
10.08.2014 11:58 22,1 C 20,0 C 79 % 1005,0 hPa 0,0 l/m 0 min 0 min 1,4 UV-I 260 W/m 35,4 km/h (5 Bft)
10.08.2014 12:00 22,1 C 20,0 C 79 % 1005,1 hPa 0,0 l/m 0 min 0 min 1,4 UV-I 273 W/m 53,0 km/h (7 Bft)
10.08.2014 12:02 22,1 C 20,0 C 79 % 1005,1 hPa 0,0 l/m 0 min 0 min 1,4 UV-I 267 W/m 42,4 km/h (6 Bft)
10.08.2014 12:05 22,1 C 20,0 C 78 % 1005,1 hPa 0,0 l/m 0 min 0 min 1,2 UV-I 243 W/m 42,4 km/h (6 Bft)
10.08.2014 12:06 22,1 C 20,0 C 79 % 1005,1 hPa 0,0 l/m 0 min 0 min 1,3 UV-I 248 W/m 46,0 km/h (6 Bft)
10.08.2014 12:08 22,1 C 20,0 C 78 % 1005,0 hPa 0,0 l/m 0 min 0 min 1,2 UV-I 239 W/m 38,9 km/h (6 Bft)
10.08.2014 12:10 22,1 C 20,0 C 79 % 1005,0 hPa 0,0 l/m 0 min 0 min 1,1 UV-I 221 W/m 38,9 km/h (6 Bft)
10.08.2014 12:12 22,1 C 20,0 C 79 % 1005,0 hPa 0,0 l/m 0 min 0 min 1,0 UV-I 199 W/m 28,2 km/h (4 Bft)
10.08.2014 12:14 22,1 C 20,0 C 80 % 1005,1 hPa 0,0 l/m 0 min 0 min 0,9 UV-I 201 W/m 28,2 km/h (4 Bft)
10.08.2014 12:16 22,0 C 20,0 C 79 % 1005,0 hPa 0,0 l/m 0 min 0 min 1,1 UV-I 228 W/m 35,4 km/h (5 Bft)
10.08.2014 12:18 22,0 C 20,0 C 80 % 1005,0 hPa 0,0 l/m 0 min 0 min 1,3 UV-I 272 W/m 31,7 km/h (5 Bft)
10.08.2014 12:20 22,1 C 20,0 C 79 % 1005,0 hPa 0,0 l/m 0 min 0 min 1,4 UV-I 278 W/m 42,4 km/h (6 Bft)
10.08.2014 12:22 22,2 C 20,6 C 79 % 1004,9 hPa 0,0 l/m 0 min 0 min 1,6 UV-I 291 W/m 35,4 km/h (5 Bft)
10.08.2014 12:24 22,3 C 20,6 C 80 % 1004,9 hPa 0,0 l/m 0 min 0 min 1,8 UV-I 311 W/m 24,7 km/h (4 Bft)
10.08.2014 12:26 22,4 C 21,1 C 79 % 1004,9 hPa 0,0 l/m 0 min 0 min 1,8 UV-I 305 W/m 35,4 km/h (5 Bft)
10.08.2014 12:28 22,4 C 21,7 C 79 % 1005,0 hPa 0,0 l/m 0 min 0 min 1,8 UV-I 290 W/m 35,4 km/h (5 Bft)
10.08.2014 12:30 22,4 C 21,7 C 78 % 1004,9 hPa 0,0 l/m 0 min 0 min 1,7 UV-I 282 W/m 49,5 km/h (6 Bft)
10.08.2014 12:32 22,4 C 21,7 C 79 % 1005,0 hPa 0,0 l/m 0 min 0 min 1,6 UV-I 271 W/m 38,9 km/h (6 Bft)
10.08.2014 12:34 22,3 C 21,7 C 79 % 1004,9 hPa 0,0 l/m 0 min 0 min 1,4 UV-I 241 W/m 38,9 km/h (6 Bft)
10.08.2014 12:36 22,3 C 21,7 C 79 % 1004,9 hPa 0,0 l/m 0 min 0 min 1,2 UV-I 204 W/m 49,5 km/h (6 Bft)
10.08.2014 12:38 22,2 C 21,7 C 79 % 1004,9 hPa 0,0 l/m 0 min 0 min 1,0 UV-I 177 W/m 60,2 km/h (7 Bft)
10.08.2014 12:40 22,2 C 21,7 C 80 % 1004,8 hPa 0,0 l/m 0 min 0 min 0,8 UV-I 158 W/m 35,4 km/h (5 Bft)
10.08.2014 12:42 22,1 C 21,1 C 80 % 1004,8 hPa 0,0 l/m 0 min 0 min 0,7 UV-I 154 W/m 46,0 km/h (6 Bft)
10.08.2014 12:44 21,9 C 21,1 C 80 % 1004,8 hPa 0,0 l/m 0 min 0 min 0,7 UV-I 144 W/m 35,4 km/h (5 Bft)
10.08.2014 12:46 21,9 C 21,1 C 81 % 1004,7 hPa 0,0 l/m 0 min 0 min 0,6 UV-I 138 W/m 24,7 km/h (4 Bft)
10.08.2014 12:48 21,8 C 21,1 C 81 % 1004,8 hPa 0,0 l/m 0 min 0 min 0,7 UV-I 140 W/m 42,4 km/h (6 Bft)
10.08.2014 12:50 21,8 C 21,1 C 81 % 1004,9 hPa 0,0 l/m 0 min 0 min 0,8 UV-I 148 W/m 38,9 km/h (6 Bft)
10.08.2014 12:52 21,8 C 21,1 C 81 % 1004,8 hPa 0,0 l/m 0 min 0 min 0,9 UV-I 164 W/m 42,4 km/h (6 Bft)
10.08.2014 12:54 21,7 C 21,1 C 81 % 1004,8 hPa 0,0 l/m 0 min 0 min 1,1 UV-I 189 W/m 35,4 km/h (5 Bft)
10.08.2014 12:56 21,7 C 21,1 C 81 % 1004,7 hPa 0,0 l/m 0 min 0 min 1,4 UV-I 223 W/m 28,2 km/h (4 Bft)
10.08.2014 12:58 21,8 C 21,1 C 82 % 1004,5 hPa 0,0 l/m 0 min 0 min 1,5 UV-I 243 W/m 31,7 km/h (5 Bft)
10.08.2014 13:00 21,8 C 21,1 C 82 % 1004,5 hPa 0,0 l/m 0 min 0 min 1,6 UV-I 265 W/m 46,0 km/h (6 Bft)
10.08.2014 13:02 21,9 C 21,7 C 82 % 1004,5 hPa 0,0 l/m 0 min 0 min 2,0 UV-I 281 W/m 49,5 km/h (6 Bft)
10.08.2014 13:04 22,1 C 21,7 C 82 % 1004,5 hPa 0,0 l/m 0 min 0 min 2,4 UV-I 341 W/m 28,2 km/h (4 Bft)
10.08.2014 13:06 22,2 C 22,2 C 81 % 1004,4 hPa 0,0 l/m 0 min 0 min 2,4 UV-I 353 W/m 35,4 km/h (5 Bft)
10.08.2014 13:08 22,3 C 22,2 C 80 % 1004,5 hPa 0,0 l/m 0 min 0 min 2,4 UV-I 348 W/m 42,4 km/h (6 Bft)
10.08.2014 13:10 22,4 C 22,2 C 80 % 1004,4 hPa 0,0 l/m 0 min 0 min 2,5 UV-I 368 W/m 35,4 km/h (5 Bft)
10.08.2014 13:12 22,5 C 22,2 C 80 % 1004,3 hPa 0,0 l/m 2 min 0 min 3,2 UV-I 424 W/m 31,7 km/h (5 Bft)
10.08.2014 13:14 22,6 C 22,8 C 79 % 1004,3 hPa 0,0 l/m 0 min 0 min 2,7 UV-I 385 W/m 60,2 km/h (7 Bft)
10.08.2014 13:16 22,6 C 22,8 C 79 % 1004,2 hPa 0,0 l/m 0 min 0 min 2,7 UV-I 255 W/m 53,0 km/h (7 Bft)
10.08.2014 13:18 22,7 C 22,8 C 79 % 1004,1 hPa 0,0 l/m 2 min 0 min 3,1 UV-I 438 W/m 53,0 km/h (7 Bft)
10.08.2014 13:20 22,8 C 22,8 C 79 % 1004,1 hPa 0,0 l/m 2 min 0 min 3,3 UV-I 471 W/m 31,7 km/h (5 Bft)
10.08.2014 13:22 22,9 C 22,8 C 80 % 1004,1 hPa 0,0 l/m 2 min 2 min 3,1 UV-I 465 W/m 56,5 km/h (7 Bft)
10.08.2014 13:24 22,9 C 22,8 C 79 % 1004,0 hPa 0,0 l/m 2 min 0 min 3,2 UV-I 480 W/m 56,5 km/h (7 Bft)
10.08.2014 13:26 23,1 C 23,3 C 79 % 1004,0 hPa 0,0 l/m 2 min 0 min 4,1 UV-I 510 W/m 31,7 km/h (5 Bft)
10.08.2014 13:28 23,3 C 23,3 C 79 % 1003,9 hPa 0,0 l/m 2 min 0 min 4,2 UV-I 510 W/m 46,0 km/h (6 Bft)
10.08.2014 13:30 23,4 C 23,3 C 78 % 1004,0 hPa 0,0 l/m 2 min 0 min 4,4 UV-I 533 W/m 42,4 km/h (6 Bft)
10.08.2014 13:32 23,6 C 23,3 C 79 % 1004,0 hPa 0,0 l/m 2 min 0 min 4,1 UV-I 612 W/m 46,0 km/h (6 Bft)
10.08.2014 13:34 23,8 C 23,3 C 78 % 1003,9 hPa 0,0 l/m 2 min 0 min 4,1 UV-I 593 W/m 49,5 km/h (6 Bft)
10.08.2014 13:36 23,9 C 23,3 C 77 % 1004,0 hPa 0,0 l/m 2 min 0 min 3,8 UV-I 434 W/m 31,7 km/h (5 Bft)
10.08.2014 13:38 23,8 C 23,3 C 77 % 1004,1 hPa 0,0 l/m 2 min 0 min 3,3 UV-I 421 W/m 60,2 km/h (7 Bft)
10.08.2014 13:40 23,6 C 22,8 C 77 % 1004,1 hPa 0,0 l/m 2 min 2 min 3,3 UV-I 432 W/m 56,5 km/h (7 Bft)
10.08.2014 13:42 23,4 C 22,8 C 78 % 1004,1 hPa 0,0 l/m 0 min 2 min 2,6 UV-I 337 W/m 49,5 km/h (6 Bft)
10.08.2014 13:44 23,3 C 22,8 C 79 % 1004,1 hPa 0,0 l/m 0 min 0 min 2,2 UV-I 297 W/m 42,4 km/h (6 Bft)
10.08.2014 13:46 23,2 C 22,8 C 80 % 1004,1 hPa 0,0 l/m 0 min 2 min 2,5 UV-I 301 W/m 31,7 km/h (5 Bft)
10.08.2014 13:48 23,3 C 23,3 C 80 % 1004,0 hPa 0,0 l/m 2 min 0 min 3,5 UV-I 494 W/m 60,2 km/h (7 Bft)
10.08.2014 13:50 23,3 C 23,3 C 79 % 1004,0 hPa 0,0 l/m 2 min 0 min 3,5 UV-I 493 W/m 46,0 km/h (6 Bft)
10.08.2014 13:52 23,4 C 23,3 C 80 % 1004,0 hPa 0,0 l/m 0 min 0 min 2,8 UV-I 376 W/m 42,4 km/h (6 Bft)
10.08.2014 13:54 23,4 C 23,3 C 79 % 1004,0 hPa 0,0 l/m 2 min 0 min 2,7 UV-I 412 W/m 56,5 km/h (7 Bft)
10.08.2014 13:56 23,3 C 23,3 C 79 % 1004,0 hPa 0,0 l/m 0 min 0 min 2,7 UV-I 386 W/m 46,0 km/h (6 Bft)
10.08.2014 13:58 23,3 C 23,3 C 79 % 1003,9 hPa 0,0 l/m 2 min 0 min 2,9 UV-I 402 W/m 31,7 km/h (5 Bft)
10.08.2014 14:00 23,4 C 23,3 C 80 % 1003,9 hPa 0,0 l/m 2 min 0 min 3,0 UV-I 452 W/m 46,0 km/h (6 Bft)
10.08.2014 14:02 23,4 C 23,3 C 81 % 1003,9 hPa 0,0 l/m 0 min 0 min 2,4 UV-I 341 W/m 38,9 km/h (6 Bft)
10.08.2014 14:04 23,4 C 23,3 C 80 % 1003,9 hPa 0,0 l/m 0 min 0 min 2,6 UV-I 385 W/m 49,5 km/h (6 Bft)
10.08.2014 14:06 23,4 C 23,3 C 79 % 1003,8 hPa 0,0 l/m 0 min 0 min 2,3 UV-I 347 W/m 63,7 km/h (8 Bft)
10.08.2014 14:08 23,4 C 23,3 C 80 % 1003,8 hPa 0,0 l/m 0 min 0 min 2,1 UV-I 306 W/m 46,0 km/h (6 Bft)
10.08.2014 14:10 23,4 C 23,3 C 81 % 1003,6 hPa 0,0 l/m 0 min 0 min 2,0 UV-I 298 W/m 60,2 km/h (7 Bft)
10.08.2014 14:12 23,3 C 22,8 C 80 % 1003,6 hPa 0,0 l/m 0 min 0 min 1,8 UV-I 289 W/m 49,5 km/h (6 Bft)
10.08.2014 14:14 23,2 C 22,8 C 80 % 1003,6 hPa 0,0 l/m 0 min 0 min 1,8 UV-I 274 W/m 49,5 km/h (6 Bft)
10.08.2014 14:16 23,2 C 22,8 C 80 % 1003,6 hPa 0,0 l/m 0 min 0 min 1,6 UV-I 250 W/m 38,9 km/h (6 Bft)
10.08.2014 14:18 23,1 C 22,8 C 80 % 1003,5 hPa 0,0 l/m 0 min 0 min 1,4 UV-I 232 W/m 56,5 km/h (7 Bft)
10.08.2014 14:20 23,0 C 22,2 C 80 % 1003,6 hPa 0,0 l/m 0 min 0 min 1,2 UV-I 203 W/m 42,4 km/h (6 Bft)
10.08.2014 14:22 22,9 C 22,2 C 80 % 1003,7 hPa 0,0 l/m 0 min 0 min 0,8 UV-I 158 W/m 56,5 km/h (7 Bft)
10.08.2014 14:24 22,9 C 21,7 C 81 % 1003,7 hPa 0,0 l/m 0 min 0 min 0,4 UV-I 120 W/m 67,1 km/h (8 Bft)
10.08.2014 14:26 22,7 C 21,7 C 80 % 1003,7 hPa 0,0 l/m 0 min 0 min 0,0 UV-I 97 W/m 74,2 km/h (8 Bft)
10.08.2014 14:28 22,6 C 21,1 C 81 % 1003,5 hPa 0,0 l/m 0 min 0 min 0,0 UV-I 93 W/m 67,1 km/h (8 Bft)
10.08.2014 14:30 22,4 C 21,1 C 81 % 1003,5 hPa 0,0 l/m 0 min 0 min 0,0 UV-I 101 W/m 49,5 km/h (6 Bft)
10.08.2014 14:32 22,3 C 21,1 C 82 % 1003,5 hPa 0,0 l/m 0 min 0 min 0,0 UV-I 111 W/m 49,5 km/h (6 Bft)
10.08.2014 14:34 22,2 C 21,1 C 82 % 1003,5 hPa 0,0 l/m 0 min 0 min 0,0 UV-I 124 W/m 49,5 km/h (6 Bft)
10.08.2014 14:36 22,2 C 21,1 C 83 % 1003,4 hPa 0,0 l/m 0 min 0 min 0,1 UV-I 128 W/m 42,4 km/h (6 Bft)
10.08.2014 14:38 22,1 C 21,1 C 82 % 1003,5 hPa 0,0 l/m 0 min 0 min 0,5 UV-I 135 W/m 60,2 km/h (7 Bft)
10.08.2014 14:40 22,1 C 21,1 C 83 % 1003,5 hPa 0,0 l/m 0 min 0 min 0,4 UV-I 136 W/m 46,0 km/h (6 Bft)
10.08.2014 14:42 22,1 C 21,1 C 83 % 1003,3 hPa 0,0 l/m 0 min 0 min 0,0 UV-I 120 W/m 38,9 km/h (6 Bft)
10.08.2014 14:44 22,0 C 21,1 C 83 % 1003,3 hPa 0,0 l/m 0 min 0 min 0,0 UV-I 103 W/m 42,4 km/h (6 Bft)
10.08.2014 14:46 21,9 C 21,1 C 83 % 1003,3 hPa 0,0 l/m 0 min 0 min 0,0 UV-I 104 W/m 56,5 km/h (7 Bft)
10.08.2014 14:48 21,9 C 21,1 C 83 % 1003,3 hPa 0,0 l/m 0 min 0 min 0,0 UV-I 114 W/m 35,4 km/h (5 Bft)
10.08.2014 14:50 21,9 C 21,1 C 84 % 1003,4 hPa 0,0 l/m 0 min 0 min 0,3 UV-I 151 W/m 42,4 km/h (6 Bft)
10.08.2014 14:52 21,9 C 21,1 C 84 % 1003,4 hPa 0,0 l/m 0 min 0 min 1,0 UV-I 209 W/m 35,4 km/h (5 Bft)
10.08.2014 14:54 22,0 C 21,7 C 84 % 1003,3 hPa 0,0 l/m 0 min 0 min 1,3 UV-I 247 W/m 38,9 km/h (6 Bft)
10.08.2014 14:56 22,2 C 21,7 C 84 % 1003,3 hPa 0,0 l/m 0 min 0 min 1,6 UV-I 275 W/m 31,7 km/h (5 Bft)
10.08.2014 14:58 22,3 C 21,7 C 84 % 1003,3 hPa 0,0 l/m 0 min 0 min 1,4 UV-I 230 W/m 42,4 km/h (6 Bft)
10.08.2014 15:00 22,3 C 21,7 C 84 % 1003,1 hPa 0,0 l/m 0 min 0 min 1,4 UV-I 238 W/m 63,7 km/h (8 Bft)
10.08.2014 15:02 22,3 C 21,7 C 83 % 1003,1 hPa 0,0 l/m 0 min 0 min 1,4 UV-I 226 W/m 46,0 km/h (6 Bft)
10.08.2014 15:04 22,3 C 21,7 C 84 % 1003,2 hPa 0,0 l/m 0 min 0 min 1,1 UV-I 186 W/m 56,5 km/h (7 Bft)
10.08.2014 15:06 22,3 C 21,7 C 83 % 1003,1 hPa 0,0 l/m 0 min 0 min 0,8 UV-I 150 W/m 31,7 km/h (5 Bft)
10.08.2014 15:08 22,3 C 21,7 C 84 % 1003,2 hPa 0,0 l/m 0 min 0 min 0,3 UV-I 114 W/m 24,7 km/h (4 Bft)
10.08.2014 15:10 22,2 C 21,1 C 84 % 1003,2 hPa 0,0 l/m 0 min 2 min 0,0 UV-I 84 W/m 31,7 km/h (5 Bft)
10.08.2014 15:12 22,1 C 21,1 C 84 % 1003,3 hPa 0,0 l/m 0 min 0 min 0,0 UV-I 67 W/m 35,4 km/h (5 Bft)
10.08.2014 15:14 22,0 C 20,6 C 84 % 1003,3 hPa 0,0 l/m 0 min 2 min 0,0 UV-I 73 W/m 46,0 km/h (6 Bft)
10.08.2014 15:16 21,9 C 20,0 C 85 % 1003,3 hPa 0,0 l/m 0 min 2 min 0,0 UV-I 86 W/m 49,5 km/h (6 Bft)
10.08.2014 15:18 21,9 C 19,4 C 86 % 1003,4 hPa 0,0 l/m 0 min 2 min 0,0 UV-I 90 W/m 42,4 km/h (6 Bft)
10.08.2014 15:20 21,7 C 18,9 C 86 % 1003,5 hPa 0,0 l/m 0 min 2 min 0,0 UV-I 87 W/m 42,4 km/h (6 Bft)
10.08.2014 15:22 21,6 C 18,9 C 88 % 1003,5 hPa 0,0 l/m 0 min 2 min 0,0 UV-I 84 W/m 38,9 km/h (6 Bft)
10.08.2014 15:24 21,4 C 18,9 C 88 % 1003,6 hPa 0,2 l/m 0 min 2 min 0,0 UV-I 89 W/m 24,7 km/h (4 Bft)
10.08.2014 15:26 21,3 C 18,9 C 89 % 1003,6 hPa 0,0 l/m 0 min 2 min 0,0 UV-I 97 W/m 31,7 km/h (5 Bft)
10.08.2014 15:28 21,2 C 18,9 C 90 % 1003,6 hPa 0,0 l/m 0 min 2 min 0,0 UV-I 104 W/m 49,5 km/h (6 Bft)
10.08.2014 15:30 21,2 C 18,9 C 90 % 1003,6 hPa 0,0 l/m 0 min 2 min 0,0 UV-I 95 W/m 24,7 km/h (4 Bft)
10.08.2014 15:32 21,1 C 18,9 C 91 % 1003,7 hPa 0,0 l/m 0 min 2 min 0,0 UV-I 80 W/m 31,7 km/h (5 Bft)
10.08.2014 15:34 21,1 C 18,9 C 91 % 1003,6 hPa 0,0 l/m 0 min 2 min 0,0 UV-I 81 W/m 31,7 km/h (5 Bft)
10.08.2014 15:36 21,1 C 18,9 C 91 % 1003,5 hPa 0,0 l/m 0 min 2 min 0,0 UV-I 89 W/m 28,2 km/h (4 Bft)
10.08.2014 15:38 21,0 C 18,9 C 92 % 1003,3 hPa 0,0 l/m 0 min 2 min 0,0 UV-I 80 W/m 31,7 km/h (5 Bft)
10.08.2014 15:40 21,0 C 18,9 C 92 % 1003,3 hPa 0,0 l/m 0 min 0 min 0,0 UV-I 65 W/m 31,7 km/h (5 Bft)
10.08.2014 15:42 21,0 C 18,9 C 92 % 1003,3 hPa 0,0 l/m 0 min 0 min 0,0 UV-I 56 W/m 31,7 km/h (5 Bft)
10.08.2014 15:44 21,0 C 18,9 C 92 % 1003,2 hPa 0,0 l/m 0 min 0 min 0,0 UV-I 58 W/m 24,7 km/h (4 Bft)
10.08.2014 15:46 20,9 C 18,9 C 92 % 1003,2 hPa 0,0 l/m 0 min 2 min 0,0 UV-I 59 W/m 17,7 km/h (3 Bft)
10.08.2014 15:48 20,9 C 18,9 C 92 % 1003,1 hPa 0,2 l/m 0 min 2 min 0,0 UV-I 55 W/m 28,2 km/h (4 Bft)
10.08.2014 15:50 20,9 C 18,9 C 92 % 1003,1 hPa 0,0 l/m 0 min 2 min 0,0 UV-I 49 W/m 31,7 km/h (5 Bft)
10.08.2014 15:52 20,9 C 18,3 C 93 % 1003,2 hPa 0,0 l/m 0 min 2 min 0,0 UV-I 48 W/m 24,7 km/h (4 Bft)
10.08.2014 15:54 20,9 C 18,9 C 93 % 1003,3 hPa 0,0 l/m 0 min 2 min 0,0 UV-I 52 W/m 28,2 km/h (4 Bft)
10.08.2014 15:56 20,9 C 18,9 C 93 % 1003,2 hPa 0,0 l/m 0 min 2 min 0,0 UV-I 54 W/m 21,3 km/h (4 Bft)
10.08.2014 15:58 20,8 C 18,9 C 93 % 1003,2 hPa 0,2 l/m 0 min 2 min 0,0 UV-I 49 W/m 24,7 km/h (4 Bft)
10.08.2014 16:00 20,8 C 18,9 C 93 % 1003,2 hPa 0,0 l/m 0 min 2 min 0,0 UV-I 45 W/m 24,7 km/h (4 Bft)
10.08.2014 16:02 20,8 C 18,9 C 93 % 1003,1 hPa 0,0 l/m 0 min 2 min 0,0 UV-I 47 W/m 31,7 km/h (5 Bft)
10.08.2014 16:04 20,7 C 18,9 C 94 % 1003,1 hPa 0,2 l/m 0 min 2 min 0,0 UV-I 53 W/m 35,4 km/h (5 Bft)
10.08.2014 16:06 20,7 C 18,9 C 94 % 1003,2 hPa 0,0 l/m 0 min 2 min 0,0 UV-I 62 W/m 24,7 km/h (4 Bft)
10.08.2014 16:08 20,7 C 18,9 C 94 % 1003,2 hPa 0,0 l/m 0 min 2 min 0,0 UV-I 83 W/m 46,0 km/h (6 Bft)
10.08.2014 16:10 20,7 C 18,9 C 94 % 1003,1 hPa 0,0 l/m 0 min 2 min 0,0 UV-I 102 W/m 31,7 km/h (5 Bft)
10.08.2014 16:12 20,6 C 18,3 C 94 % 1003,1 hPa 0,2 l/m 0 min 2 min 0,0 UV-I 124 W/m 31,7 km/h (5 Bft)
10.08.2014 16:14 20,7 C 18,9 C 94 % 1003,1 hPa 0,0 l/m 0 min 2 min 0,0 UV-I 134 W/m 35,4 km/h (5 Bft)
10.08.2014 16:16 20,7 C 18,9 C 94 % 1003,0 hPa 0,0 l/m 0 min 2 min 0,1 UV-I 151 W/m 24,7 km/h (4 Bft)
10.08.2014 16:18 20,7 C 18,9 C 94 % 1003,0 hPa 0,0 l/m 0 min 2 min 0,6 UV-I 180 W/m 31,7 km/h (5 Bft)
10.08.2014 16:20 20,7 C 18,9 C 94 % 1003,0 hPa 0,0 l/m 0 min 2 min 0,6 UV-I 177 W/m 21,3 km/h (4 Bft)
10.08.2014 16:22 20,8 C 18,9 C 94 % 1003,0 hPa 0,0 l/m 0 min 2 min 0,1 UV-I 160 W/m 31,7 km/h (5 Bft)
10.08.2014 16:24 20,8 C 19,4 C 94 % 1002,9 hPa 0,0 l/m 0 min 2 min 0,5 UV-I 179 W/m 24,7 km/h (4 Bft)
10.08.2014 16:26 20,9 C 19,4 C 94 % 1002,9 hPa 0,2 l/m 0 min 2 min 0,9 UV-I 221 W/m 17,7 km/h (3 Bft)
10.08.2014 16:28 21,1 C 19,4 C 94 % 1002,9 hPa 0,0 l/m 0 min 2 min 0,8 UV-I 209 W/m 38,9 km/h (6 Bft)
10.08.2014 16:30 21,0 C 19,4 C 94 % 1002,9 hPa 0,0 l/m 0 min 2 min 0,7 UV-I 181 W/m 28,2 km/h (4 Bft)
10.08.2014 16:32 21,1 C 19,4 C 94 % 1002,9 hPa 0,0 l/m 0 min 0 min 0,6 UV-I 174 W/m 24,7 km/h (4 Bft)
10.08.2014 16:34 21,0 C 19,4 C 94 % 1002,8 hPa 0,0 l/m 0 min 0 min 0,8 UV-I 206 W/m 21,3 km/h (4 Bft)
10.08.2014 16:36 21,1 C 19,4 C 93 % 1002,6 hPa 0,0 l/m 0 min 0 min 1,0 UV-I 270 W/m 24,7 km/h (4 Bft)
10.08.2014 16:38 21,3 C 20,0 C 93 % 1002,5 hPa 0,0 l/m 0 min 0 min 1,2 UV-I 285 W/m 17,7 km/h (3 Bft)
10.08.2014 16:40 21,4 C 20,0 C 93 % 1002,4 hPa 0,0 l/m 0 min 0 min 1,5 UV-I 287 W/m 24,7 km/h (4 Bft)
10.08.2014 16:42 21,7 C 20,6 C 93 % 1002,4 hPa 0,0 l/m 2 min 0 min 1,6 UV-I 337 W/m 31,7 km/h (5 Bft)
10.08.2014 16:44 21,9 C 20,6 C 93 % 1002,4 hPa 0,0 l/m 2 min 0 min 1,5 UV-I 626 W/m 14,2 km/h (3 Bft)
10.08.2014 16:46 22,2 C 20,6 C 93 % 1002,3 hPa 0,0 l/m 2 min 0 min 1,7 UV-I 542 W/m 24,7 km/h (4 Bft)
10.08.2014 16:48 22,3 C 20,6 C 93 % 1002,3 hPa 0,0 l/m 2 min 0 min 1,3 UV-I 466 W/m 28,2 km/h (4 Bft)
10.08.2014 16:50 22,3 C 20,6 C 91 % 1002,3 hPa 0,0 l/m 0 min 0 min 1,0 UV-I 224 W/m 38,9 km/h (6 Bft)
10.08.2014 16:52 22,3 C 20,6 C 91 % 1002,4 hPa 0,0 l/m 0 min 0 min 1,0 UV-I 289 W/m 42,4 km/h (6 Bft)
10.08.2014 16:54 22,3 C 20,6 C 91 % 1002,4 hPa 0,0 l/m 2 min 0 min 1,1 UV-I 333 W/m 24,7 km/h (4 Bft)
10.08.2014 16:56 22,4 C 20,6 C 91 % 1002,3 hPa 0,0 l/m 2 min 0 min 1,2 UV-I 332 W/m 21,3 km/h (4 Bft)
10.08.2014 16:58 22,6 C 21,1 C 91 % 1002,2 hPa 0,0 l/m 2 min 0 min 1,2 UV-I 389 W/m 24,7 km/h (4 Bft)
10.08.2014 17:00 22,6 C 21,1 C 91 % 1002,1 hPa 0,0 l/m 2 min 0 min 1,1 UV-I 292 W/m 31,7 km/h (5 Bft)
10.08.2014 17:02 22,8 C 21,1 C 90 % 1002,1 hPa 0,0 l/m 2 min 0 min 1,4 UV-I 439 W/m 35,4 km/h (5 Bft)
10.08.2014 17:04 22,8 C 21,1 C 90 % 1002,0 hPa 0,0 l/m 2 min 0 min 1,4 UV-I 412 W/m 24,7 km/h (4 Bft)
10.08.2014 17:06 23,0 C 21,7 C 89 % 1002,0 hPa 0,0 l/m 2 min 0 min 1,7 UV-I 534 W/m 35,4 km/h (5 Bft)
10.08.2014 17:08 23,2 C 22,2 C 89 % 1002,0 hPa 0,0 l/m 2 min 0 min 1,6 UV-I 512 W/m 24,7 km/h (4 Bft)
10.08.2014 17:10 23,4 C 22,8 C 89 % 1001,9 hPa 0,0 l/m 2 min 0 min 1,5 UV-I 484 W/m 38,9 km/h (6 Bft)
10.08.2014 17:12 23,5 C 22,2 C 88 % 1001,9 hPa 0,0 l/m 2 min 0 min 1,2 UV-I 375 W/m 49,5 km/h (6 Bft)
10.08.2014 17:14 23,4 C 21,7 C 87 % 1001,8 hPa 0,0 l/m 0 min 0 min 1,1 UV-I 200 W/m 46,0 km/h (6 Bft)
10.08.2014 17:16 23,3 C 21,1 C 87 % 1001,8 hPa 0,0 l/m 0 min 0 min 1,0 UV-I 237 W/m 49,5 km/h (6 Bft)
10.08.2014 17:18 23,3 C 21,1 C 86 % 1001,7 hPa 0,0 l/m 0 min 0 min 1,1 UV-I 229 W/m 38,9 km/h (6 Bft)
10.08.2014 17:20 23,2 C 21,1 C 86 % 1001,8 hPa 0,0 l/m 0 min 0 min 0,8 UV-I 221 W/m 56,5 km/h (7 Bft)
10.08.2014 17:22 23,1 C 20,6 C 86 % 1001,8 hPa 0,0 l/m 0 min 0 min 0,7 UV-I 140 W/m 67,1 km/h (8 Bft)
10.08.2014 17:24 22,8 C 20,0 C 85 % 1001,9 hPa 0,0 l/m 0 min 0 min 0,6 UV-I 135 W/m 70,6 km/h (8 Bft)
10.08.2014 17:26 22,8 C 20,6 C 85 % 1001,7 hPa 0,0 l/m 2 min 0 min 1,1 UV-I 425 W/m 67,1 km/h (8 Bft)
10.08.2014 17:28 22,8 C 20,0 C 85 % 1001,8 hPa 0,0 l/m 2 min 0 min 0,8 UV-I 302 W/m 60,2 km/h (7 Bft)
10.08.2014 17:30 22,9 C 20,6 C 85 % 1001,8 hPa 0,0 l/m 2 min 0 min 1,1 UV-I 405 W/m 53,0 km/h (7 Bft)
10.08.2014 17:32 23,0 C 20,6 C 85 % 1001,7 hPa 0,0 l/m 2 min 0 min 0,9 UV-I 443 W/m 70,6 km/h (8 Bft)
10.08.2014 17:34 23,1 C 20,6 C 85 % 1001,7 hPa 0,0 l/m 2 min 0 min 0,7 UV-I 409 W/m 42,4 km/h (6 Bft)
10.08.2014 17:36 23,2 C 20,6 C 85 % 1001,7 hPa 0,0 l/m 2 min 0 min 0,7 UV-I 408 W/m 49,5 km/h (6 Bft)
10.08.2014 17:38 23,2 C 20,6 C 84 % 1001,7 hPa 0,0 l/m 2 min 0 min 0,6 UV-I 408 W/m 70,6 km/h (8 Bft)
10.08.2014 17:40 23,2 C 20,6 C 84 % 1001,6 hPa 0,0 l/m 2 min 0 min 0,6 UV-I 408 W/m 63,7 km/h (8 Bft)
10.08.2014 17:42 23,2 C 20,6 C 84 % 1001,6 hPa 0,0 l/m 2 min 0 min 0,6 UV-I 405 W/m 63,7 km/h (8 Bft)
10.08.2014 17:44 23,2 C 20,0 C 83 % 1001,6 hPa 0,0 l/m 2 min 0 min 0,5 UV-I 355 W/m 74,2 km/h (8 Bft)
10.08.2014 17:46 23,2 C 20,0 C 84 % 1001,5 hPa 0,0 l/m 2 min 0 min 0,5 UV-I 324 W/m 74,2 km/h (8 Bft)
10.08.2014 17:48 23,1 C 20,0 C 83 % 1001,5 hPa 0,0 l/m 0 min 0 min 0,0 UV-I 134 W/m 77,7 km/h (9 Bft)
10.08.2014 17:50 22,9 C 20,0 C 84 % 1001,5 hPa 0,0 l/m 0 min 0 min 0,0 UV-I 144 W/m 53,0 km/h (7 Bft)
10.08.2014 17:52 22,9 C 20,0 C 84 % 1001,4 hPa 0,0 l/m 0 min 0 min 0,0 UV-I 193 W/m 63,7 km/h (8 Bft)
10.08.2014 17:54 22,9 C 20,6 C 85 % 1001,3 hPa 0,0 l/m 0 min 0 min 0,3 UV-I 206 W/m 63,7 km/h (8 Bft)
10.08.2014 17:56 22,9 C 20,6 C 85 % 1001,3 hPa 0,0 l/m 0 min 0 min 0,3 UV-I 226 W/m 56,5 km/h (7 Bft)
10.08.2014 17:58 22,9 C 20,0 C 85 % 1001,1 hPa 0,0 l/m 2 min 0 min 0,0 UV-I 229 W/m 46,0 km/h (6 Bft)
10.08.2014 18:00 22,8 C 20,0 C 85 % 1001,0 hPa 0,0 l/m 0 min 0 min 0,0 UV-I 160 W/m 56,5 km/h (7 Bft)
10.08.2014 18:02 22,7 C 20,0 C 85 % 1001,1 hPa 0,0 l/m 0 min 0 min 0,0 UV-I 136 W/m 63,7 km/h (8 Bft)
10.08.2014 18:05 22,6 C 20,0 C 86 % 1000,9 hPa 0,0 l/m 2 min 0 min 0,0 UV-I 388 W/m 56,5 km/h (7 Bft)
10.08.2014 18:06 22,7 C 20,0 C 86 % 1000,9 hPa 0,0 l/m 1 min 0 min 0,0 UV-I 273 W/m 56,5 km/h (7 Bft)
10.08.2014 18:08 22,7 C 20,0 C 86 % 1000,9 hPa 0,0 l/m 0 min 0 min 0,0 UV-I 206 W/m 56,5 km/h (7 Bft)
10.08.2014 18:10 22,7 C 20,0 C 86 % 1000,9 hPa 0,0 l/m 2 min 0 min 0,0 UV-I 295 W/m 56,5 km/h (7 Bft)
10.08.2014 18:12 22,7 C 20,0 C 86 % 1000,9 hPa 0,0 l/m 2 min 0 min 0,0 UV-I 278 W/m 63,7 km/h (8 Bft)
10.08.2014 18:14 22,7 C 20,0 C 86 % 1000,8 hPa 0,0 l/m 0 min 0 min 0,0 UV-I 192 W/m 49,5 km/h (6 Bft)
10.08.2014 18:16 22,7 C 20,0 C 86 % 1000,9 hPa 0,0 l/m 0 min 0 min 0,0 UV-I 109 W/m 53,0 km/h (7 Bft)
10.08.2014 18:18 22,6 C 20,0 C 86 % 1000,9 hPa 0,0 l/m 0 min 0 min 0,0 UV-I 99 W/m 42,4 km/h (6 Bft)
10.08.2014 18:20 22,6 C 20,0 C 86 % 1000,7 hPa 0,0 l/m 0 min 0 min 0,0 UV-I 108 W/m 60,2 km/h (7 Bft)
10.08.2014 18:22 22,5 C 20,0 C 86 % 1000,7 hPa 0,0 l/m 0 min 0 min 0,0 UV-I 120 W/m 46,0 km/h (6 Bft)
10.08.2014 18:24 22,5 C 20,0 C 86 % 1000,7 hPa 0,0 l/m 0 min 0 min 0,0 UV-I 120 W/m 49,5 km/h (6 Bft)
10.08.2014 18:26 22,5 C 20,0 C 86 % 1000,8 hPa 0,0 l/m 0 min 0 min 0,0 UV-I 124 W/m 63,7 km/h (8 Bft)
10.08.2014 18:28 22,5 C 20,0 C 86 % 1000,8 hPa 0,0 l/m 0 min 0 min 0,0 UV-I 127 W/m 63,7 km/h (8 Bft)
10.08.2014 18:30 22,5 C 20,0 C 86 % 1000,7 hPa 0,0 l/m 0 min 0 min 0,0 UV-I 130 W/m 53,0 km/h (7 Bft)
10.08.2014 18:32 22,5 C 20,0 C 86 % 1000,8 hPa 0,0 l/m 0 min 0 min 0,0 UV-I 133 W/m 60,2 km/h (7 Bft)
10.08.2014 18:34 22,6 C 20,0 C 86 % 1000,8 hPa 0,0 l/m 0 min 0 min 0,0 UV-I 124 W/m 46,0 km/h (6 Bft)
10.08.2014 18:36 22,6 C 20,0 C 86 % 1000,8 hPa 0,0 l/m 0 min 0 min 0,0 UV-I 100 W/m 49,5 km/h (6 Bft)
10.08.2014 18:38 22,5 C 20,0 C 86 % 1000,9 hPa 0,0 l/m 0 min 0 min 0,0 UV-I 85 W/m 53,0 km/h (7 Bft)
10.08.2014 18:40 22,5 C 20,0 C 86 % 1000,7 hPa 0,0 l/m 0 min 0 min 0,0 UV-I 78 W/m 46,0 km/h (6 Bft)
10.08.2014 18:42 22,5 C 20,0 C 87 % 1000,7 hPa 0,0 l/m 0 min 0 min 0,0 UV-I 75 W/m 46,0 km/h (6 Bft)
10.08.2014 18:44 22,5 C 20,0 C 87 % 1000,7 hPa 0,0 l/m 0 min 0 min 0,0 UV-I 68 W/m 38,9 km/h (6 Bft)
10.08.2014 18:46 22,4 C 20,0 C 87 % 1000,7 hPa 0,0 l/m 0 min 0 min 0,0 UV-I 63 W/m 42,4 km/h (6 Bft)
10.08.2014 18:48 22,4 C 20,0 C 87 % 1000,8 hPa 0,0 l/m 0 min 0 min 0,0 UV-I 69 W/m 35,4 km/h (5 Bft)
10.08.2014 18:50 22,4 C 20,0 C 87 % 1000,8 hPa 0,0 l/m 0 min 0 min 0,0 UV-I 65 W/m 56,5 km/h (7 Bft)
10.08.2014 18:52 22,4 C 20,0 C 87 % 1000,8 hPa 0,0 l/m 0 min 0 min 0,0 UV-I 51 W/m 53,0 km/h (7 Bft)
10.08.2014 18:54 22,4 C 20,0 C 87 % 1000,8 hPa 0,0 l/m 0 min 0 min 0,0 UV-I 32 W/m 46,0 km/h (6 Bft)
10.08.2014 18:56 22,4 C 20,0 C 87 % 1000,8 hPa 0,0 l/m 0 min 0 min 0,0 UV-I 21 W/m 49,5 km/h (6 Bft)
10.08.2014 18:58 22,4 C 19,4 C 87 % 1000,8 hPa 0,0 l/m 0 min 2 min 0,0 UV-I 21 W/m 35,4 km/h (5 Bft)
10.08.2014 19:00 22,3 C 19,4 C 88 % 1000,6 hPa 0,0 l/m 0 min 2 min 0,0 UV-I 25 W/m 46,0 km/h (6 Bft)
10.08.2014 19:02 22,2 C 18,9 C 88 % 1000,4 hPa 0,0 l/m 0 min 2 min 0,0 UV-I 26 W/m 46,0 km/h (6 Bft)
10.08.2014 19:04 22,1 C 18,9 C 89 % 1000,4 hPa 0,0 l/m 0 min 2 min 0,0 UV-I 22 W/m 56,5 km/h (7 Bft)
10.08.2014 19:06 22,0 C 18,9 C 89 % 1000,3 hPa 0,0 l/m 0 min 2 min 0,0 UV-I 21 W/m 56,5 km/h (7 Bft)
10.08.2014 19:08 21,9 C 18,9 C 89 % 1000,2 hPa 0,0 l/m 0 min 0 min 0,0 UV-I 19 W/m 49,5 km/h (6 Bft)
10.08.2014 19:10 21,9 C 18,9 C 89 % 1000,3 hPa 0,0 l/m 0 min 0 min 0,0 UV-I 17 W/m 56,5 km/h (7 Bft)
10.08.2014 19:12 21,8 C 18,9 C 90 % 1000,5 hPa 0,0 l/m 0 min 0 min 0,0 UV-I 16 W/m 53,0 km/h (7 Bft)
10.08.2014 19:14 21,8 C 18,9 C 90 % 1000,6 hPa 0,0 l/m 0 min 2 min 0,0 UV-I 14 W/m 42,4 km/h (6 Bft)
10.08.2014 19:16 21,8 C 18,9 C 90 % 1000,7 hPa 0,0 l/m 0 min 2 min 0,0 UV-I 14 W/m 38,9 km/h (6 Bft)
10.08.2014 19:18 21,8 C 18,9 C 91 % 1000,7 hPa 0,2 l/m 0 min 2 min 0,0 UV-I 13 W/m 49,5 km/h (6 Bft)
10.08.2014 19:20 21,7 C 18,9 C 91 % 1000,6 hPa 0,2 l/m 0 min 2 min 0,0 UV-I 12 W/m 49,5 km/h (6 Bft)
10.08.2014 19:22 21,7 C 18,9 C 91 % 1000,6 hPa 0,0 l/m 0 min 2 min 0,0 UV-I 12 W/m 53,0 km/h (7 Bft)
10.08.2014 19:24 21,6 C 18,9 C 91 % 1000,6 hPa 0,4 l/m 0 min 2 min 0,0 UV-I 8 W/m 53,0 km/h (7 Bft)
10.08.2014 19:26 21,5 C 18,9 C 92 % 1000,6 hPa 0,6 l/m 0 min 2 min 0,0 UV-I 5 W/m 49,5 km/h (6 Bft)
10.08.2014 19:28 21,4 C 18,9 C 92 % 1000,5 hPa 0,2 l/m 0 min 2 min 0,0 UV-I 7 W/m 49,5 km/h (6 Bft)
10.08.2014 19:30 21,3 C 18,9 C 93 % 1000,5 hPa 0,0 l/m 0 min 2 min 0,0 UV-I 7 W/m 60,2 km/h (7 Bft)
10.08.2014 19:32 21,2 C 18,9 C 93 % 1000,7 hPa 0,2 l/m 0 min 2 min 0,0 UV-I 7 W/m 42,4 km/h (6 Bft)
10.08.2014 19:34 21,2 C 18,9 C 93 % 1000,7 hPa 0,0 l/m 0 min 2 min 0,0 UV-I 7 W/m 35,4 km/h (5 Bft)
10.08.2014 19:36 21,1 C 18,9 C 93 % 1000,8 hPa 0,0 l/m 0 min 2 min 0,0 UV-I 7 W/m 46,0 km/h (6 Bft)
10.08.2014 19:38 21,1 C 18,9 C 94 % 1000,7 hPa 0,2 l/m 0 min 2 min 0,0 UV-I 7 W/m 56,5 km/h (7 Bft)
10.08.2014 19:40 21,0 C 18,9 C 94 % 1000,8 hPa 0,0 l/m 0 min 2 min 0,0 UV-I 7 W/m 46,0 km/h (6 Bft)
10.08.2014 19:42 21,0 C 18,9 C 94 % 1000,8 hPa 0,0 l/m 0 min 2 min 0,0 UV-I 8 W/m 46,0 km/h (6 Bft)
10.08.2014 19:44 20,9 C 18,9 C 94 % 1000,8 hPa 0,2 l/m 0 min 2 min 0,0 UV-I 9 W/m 35,4 km/h (5 Bft)
10.08.2014 19:46 20,9 C 18,9 C 94 % 1000,9 hPa 0,0 l/m 0 min 2 min 0,0 UV-I 9 W/m 38,9 km/h (6 Bft)
10.08.2014 19:48 20,9 C 18,9 C 94 % 1001,0 hPa 0,2 l/m 0 min 2 min 0,0 UV-I 10 W/m 24,7 km/h (4 Bft)
10.08.2014 19:50 20,8 C 18,9 C 95 % 1001,1 hPa 0,0 l/m 0 min 2 min 0,0 UV-I 11 W/m 38,9 km/h (6 Bft)
10.08.2014 19:52 20,8 C 18,9 C 95 % 1001,3 hPa 0,2 l/m 0 min 2 min 0,0 UV-I 9 W/m 28,2 km/h (4 Bft)
10.08.2014 19:54 20,8 C 18,9 C 95 % 1001,3 hPa 0,0 l/m 0 min 2 min 0,0 UV-I 7 W/m 31,7 km/h (5 Bft)
10.08.2014 19:56 20,7 C 18,9 C 95 % 1001,3 hPa 0,2 l/m 0 min 2 min 0,0 UV-I 8 W/m 28,2 km/h (4 Bft)
10.08.2014 19:58 20,7 C 18,9 C 95 % 1001,3 hPa 0,2 l/m 0 min 2 min 0,0 UV-I 9 W/m 24,7 km/h (4 Bft)
10.08.2014 20:00 20,7 C 18,9 C 95 % 1001,2 hPa 0,0 l/m 0 min 2 min 0,0 UV-I 11 W/m 21,3 km/h (4 Bft)
10.08.2014 20:02 20,7 C 18,9 C 95 % 1001,2 hPa 0,0 l/m 0 min 0 min 0,0 UV-I 10 W/m 28,2 km/h (4 Bft)
10.08.2014 20:04 20,6 C 18,9 C 95 % 1001,1 hPa 0,0 l/m 0 min 2 min 0,0 UV-I 10 W/m 28,2 km/h (4 Bft)
10.08.2014 20:06 20,6 C 18,9 C 95 % 1001,2 hPa 0,0 l/m 0 min 2 min 0,0 UV-I 14 W/m 28,2 km/h (4 Bft)
10.08.2014 20:08 20,6 C 18,9 C 95 % 1001,0 hPa 0,0 l/m 0 min 2 min 0,0 UV-I 25 W/m 24,7 km/h (4 Bft)
10.08.2014 20:10 20,5 C 18,9 C 95 % 1001,0 hPa 0,0 l/m 0 min 2 min 0,0 UV-I 36 W/m 21,3 km/h (4 Bft)
10.08.2014 20:12 20,4 C 18,3 C 95 % 1001,0 hPa 0,0 l/m 0 min 0 min 0,0 UV-I 43 W/m 46,0 km/h (6 Bft)
10.08.2014 20:14 20,4 C 18,3 C 95 % 1001,2 hPa 0,0 l/m 0 min 0 min 0,0 UV-I 45 W/m 28,2 km/h (4 Bft)
10.08.2014 20:16 20,4 C 18,3 C 95 % 1001,2 hPa 0,0 l/m 0 min 0 min 0,0 UV-I 45 W/m 42,4 km/h (6 Bft)
10.08.2014 20:18 20,4 C 18,3 C 95 % 1001,3 hPa 0,0 l/m 0 min 0 min 0,0 UV-I 37 W/m 31,7 km/h (5 Bft)
10.08.2014 20:20 20,4 C 18,3 C 95 % 1001,3 hPa 0,0 l/m 0 min 0 min 0,0 UV-I 39 W/m 10,7 km/h (2 Bft)
10.08.2014 20:22 20,4 C 18,3 C 94 % 1001,4 hPa 0,0 l/m 0 min 0 min 0,0 UV-I 38 W/m 24,7 km/h (4 Bft)
10.08.2014 20:24 20,4 C 18,3 C 94 % 1001,5 hPa 0,0 l/m 0 min 0 min 0,0 UV-I 42 W/m 31,7 km/h (5 Bft)
10.08.2014 20:26 20,4 C 18,3 C 94 % 1001,6 hPa 0,0 l/m 2 min 0 min 0,0 UV-I 47 W/m 17,7 km/h (3 Bft)
10.08.2014 20:28 20,3 C 18,3 C 94 % 1001,5 hPa 0,0 l/m 2 min 0 min 0,0 UV-I 50 W/m 38,9 km/h (6 Bft)
10.08.2014 20:30 20,2 C 18,3 C 94 % 1001,4 hPa 0,0 l/m 2 min 0 min 0,0 UV-I 45 W/m 42,4 km/h (6 Bft)
10.08.2014 20:32 20,1 C 18,3 C 94 % 1001,5 hPa 0,0 l/m 2 min 0 min 0,0 UV-I 38 W/m 17,7 km/h (3 Bft)
10.08.2014 20:34 19,9 C 18,3 C 94 % 1001,5 hPa 0,0 l/m 2 min 0 min 0,0 UV-I 33 W/m 49,5 km/h (6 Bft)
10.08.2014 20:36 19,8 C 18,3 C 94 % 1001,4 hPa 0,0 l/m 0 min 0 min 0,0 UV-I 28 W/m 24,7 km/h (4 Bft)
10.08.2014 20:38 19,8 C 18,3 C 94 % 1001,4 hPa 0,0 l/m 0 min 0 min 0,0 UV-I 24 W/m 24,7 km/h (4 Bft)
10.08.2014 20:40 19,7 C 17,8 C 94 % 1001,4 hPa 0,0 l/m 0 min 0 min 0,0 UV-I 21 W/m 21,3 km/h (4 Bft)
10.08.2014 20:42 19,7 C 17,8 C 94 % 1001,5 hPa 0,0 l/m 0 min 0 min 0,0 UV-I 19 W/m 28,2 km/h (4 Bft)
10.08.2014 20:44 19,6 C 17,8 C 94 % 1001,6 hPa 0,0 l/m 0 min 0 min 0,0 UV-I 18 W/m 42,4 km/h (6 Bft)
10.08.2014 20:46 19,6 C 17,8 C 94 % 1001,6 hPa 0,0 l/m 2 min 0 min 0,0 UV-I 17 W/m 28,2 km/h (4 Bft)
10.08.2014 20:48 19,6 C 17,8 C 94 % 1001,8 hPa 0,0 l/m 2 min 0 min 0,0 UV-I 15 W/m 35,4 km/h (5 Bft)
10.08.2014 20:50 19,6 C 17,8 C 94 % 1001,8 hPa 0,0 l/m 2 min 0 min 0,0 UV-I 13 W/m 31,7 km/h (5 Bft)
10.08.2014 20:52 19,6 C 17,8 C 94 % 1001,9 hPa 0,0 l/m 0 min 0 min 0,0 UV-I 12 W/m 28,2 km/h (4 Bft)
10.08.2014 20:54 19,6 C 17,8 C 94 % 1001,9 hPa 0,0 l/m 0 min 0 min 0,0 UV-I 12 W/m 49,5 km/h (6 Bft)
10.08.2014 20:56 19,6 C 17,8 C 94 % 1001,9 hPa 0,0 l/m 0 min 0 min 0,0 UV-I 12 W/m 46,0 km/h (6 Bft)
10.08.2014 20:58 19,6 C 17,8 C 93 % 1002,1 hPa 0,0 l/m 0 min 0 min 0,0 UV-I 12 W/m 49,5 km/h (6 Bft)
10.08.2014 21:00 19,5 C 17,8 C 93 % 1002,0 hPa 0,0 l/m 0 min 0 min 0,0 UV-I 0 W/m 60,2 km/h (7 Bft)
10.08.2014 21:02 19,5 C 17,8 C 93 % 1002,1 hPa 0,0 l/m 0 min 0 min 0,0 UV-I 0 W/m 53,0 km/h (7 Bft)
10.08.2014 21:04 19,5 C 17,8 C 93 % 1002,1 hPa 0,0 l/m 0 min 0 min 0,0 UV-I 0 W/m 49,5 km/h (6 Bft)
10.08.2014 21:06 19,4 C 17,8 C 93 % 1002,2 hPa 0,0 l/m 0 min 0 min 0,0 UV-I 0 W/m 53,0 km/h (7 Bft)
10.08.2014 21:08 19,4 C 17,8 C 92 % 1002,4 hPa 0,0 l/m 0 min 0 min 0,0 UV-I 0 W/m 49,5 km/h (6 Bft)
10.08.2014 21:10 19,4 C 17,8 C 92 % 1002,4 hPa 0,0 l/m 0 min 0 min 0,0 UV-I 0 W/m 46,0 km/h (6 Bft)
10.08.2014 21:12 19,4 C 17,2 C 92 % 1002,4 hPa 0,0 l/m 0 min 0 min 0,0 UV-I 0 W/m 56,5 km/h (7 Bft)
10.08.2014 21:14 19,4 C 17,2 C 92 % 1002,5 hPa 0,0 l/m 0 min 0 min 0,0 UV-I 0 W/m 53,0 km/h (7 Bft)
10.08.2014 21:16 19,3 C 17,2 C 92 % 1002,5 hPa 0,0 l/m 0 min 0 min 0,0 UV-I 0 W/m 53,0 km/h (7 Bft)
10.08.2014 21:18 19,3 C 17,2 C 92 % 1002,7 hPa 0,0 l/m 0 min 0 min 0,0 UV-I 0 W/m 63,7 km/h (8 Bft)
10.08.2014 21:20 19,2 C 17,2 C 91 % 1002,8 hPa 0,0 l/m 0 min 0 min 0,0 UV-I 0 W/m 56,5 km/h (7 Bft)
10.08.2014 21:22 19,1 C 17,2 C 91 % 1002,9 hPa 0,0 l/m 0 min 0 min 0,0 UV-I 0 W/m 49,5 km/h (6 Bft)
10.08.2014 21:24 19,0 C 16,7 C 90 % 1003,0 hPa 0,0 l/m 0 min 0 min 0,0 UV-I 0 W/m 67,1 km/h (8 Bft)
10.08.2014 21:26 18,9 C 16,7 C 89 % 1003,0 hPa 0,0 l/m 0 min 0 min 0,0 UV-I 0 W/m 70,6 km/h (8 Bft)
10.08.2014 21:28 18,8 C 16,7 C 88 % 1003,0 hPa 0,0 l/m 0 min 0 min 0,0 UV-I 0 W/m 70,6 km/h (8 Bft)
10.08.2014 21:30 18,7 C 16,7 C 87 % 1003,0 hPa 0,0 l/m 0 min 0 min 0,0 UV-I 0 W/m 88,4 km/h (10 Bft)
10.08.2014 21:32 18,6 C 16,1 C 86 % 1003,2 hPa 0,0 l/m 0 min 0 min 0,0 UV-I 0 W/m 74,2 km/h (8 Bft)
10.08.2014 21:34 18,5 C 16,1 C 86 % 1003,2 hPa 0,0 l/m 0 min 0 min 0,0 UV-I 0 W/m 53,0 km/h (7 Bft)
10.08.2014 21:36 18,4 C 16,1 C 85 % 1003,3 hPa 0,0 l/m 0 min 0 min 0,0 UV-I 0 W/m 56,5 km/h (7 Bft)
10.08.2014 21:38 18,3 C 16,1 C 85 % 1003,4 hPa 0,0 l/m 0 min 0 min 0,0 UV-I 0 W/m 56,5 km/h (7 Bft)
10.08.2014 21:40 18,3 C 16,1 C 85 % 1003,4 hPa 0,0 l/m 0 min 0 min 0,0 UV-I 0 W/m 56,5 km/h (7 Bft)
10.08.2014 21:42 18,2 C 15,6 C 85 % 1003,4 hPa 0,0 l/m 0 min 0 min 0,0 UV-I 0 W/m 63,7 km/h (8 Bft)
10.08.2014 21:44 18,1 C 15,6 C 85 % 1003,6 hPa 0,0 l/m 0 min 0 min 0,0 UV-I 0 W/m 53,0 km/h (7 Bft)
10.08.2014 21:46 18,1 C 15,6 C 85 % 1003,7 hPa 0,0 l/m 0 min 0 min 0,0 UV-I 0 W/m 53,0 km/h (7 Bft)
10.08.2014 21:48 18,0 C 15,6 C 86 % 1003,8 hPa 0,0 l/m 0 min 0 min 0,0 UV-I 0 W/m 38,9 km/h (6 Bft)
10.08.2014 21:50 17,9 C 15,6 C 86 % 1003,8 hPa 0,0 l/m 0 min 0 min 0,0 UV-I 0 W/m 53,0 km/h (7 Bft)
10.08.2014 21:52 17,9 C 15,6 C 86 % 1003,8 hPa 0,0 l/m 0 min 0 min 0,0 UV-I 0 W/m 49,5 km/h (6 Bft)
10.08.2014 21:54 17,8 C 15,6 C 86 % 1003,9 hPa 0,0 l/m 0 min 0 min 0,0 UV-I 0 W/m 35,4 km/h (5 Bft)
10.08.2014 21:56 17,8 C 15,6 C 86 % 1004,0 hPa 0,0 l/m 0 min 0 min 0,0 UV-I 0 W/m 46,0 km/h (6 Bft)
10.08.2014 21:58 17,7 C 15,6 C 86 % 1004,0 hPa 0,0 l/m 0 min 0 min 0,0 UV-I 0 W/m 42,4 km/h (6 Bft)
10.08.2014 22:00 17,7 C 15,6 C 86 % 1004,0 hPa 0,0 l/m 0 min 0 min 0,0 UV-I 0 W/m 67,1 km/h (8 Bft)
10.08.2014 22:02 17,7 C 15,6 C 86 % 1004,0 hPa 0,0 l/m 0 min 0 min 0,0 UV-I 0 W/m 38,9 km/h (6 Bft)
10.08.2014 22:04 17,7 C 15,6 C 86 % 1004,0 hPa 0,0 l/m 0 min 0 min 0,0 UV-I 0 W/m 35,4 km/h (5 Bft)
10.08.2014 22:06 17,7 C 15,6 C 86 % 1004,0 hPa 0,0 l/m 0 min 0 min 0,0 UV-I 0 W/m 49,5 km/h (6 Bft)
10.08.2014 22:08 17,6 C 15,6 C 86 % 1004,1 hPa 0,0 l/m 0 min 0 min 0,0 UV-I 0 W/m 31,7 km/h (5 Bft)
10.08.2014 22:10 17,6 C 15,6 C 86 % 1004,1 hPa 0,0 l/m 0 min 0 min 0,0 UV-I 0 W/m 38,9 km/h (6 Bft)
10.08.2014 22:12 17,6 C 15,6 C 86 % 1004,1 hPa 0,0 l/m 0 min 0 min 0,0 UV-I 0 W/m 42,4 km/h (6 Bft)
10.08.2014 22:14 17,5 C 15,6 C 86 % 1004,1 hPa 0,0 l/m 0 min 0 min 0,0 UV-I 0 W/m 46,0 km/h (6 Bft)
10.08.2014 22:16 17,6 C 15,6 C 86 % 1004,1 hPa 0,0 l/m 0 min 0 min 0,0 UV-I 0 W/m 46,0 km/h (6 Bft)
10.08.2014 22:18 17,6 C 15,6 C 86 % 1004,1 hPa 0,0 l/m 0 min 0 min 0,0 UV-I 0 W/m 56,5 km/h (7 Bft)
10.08.2014 22:20 17,6 C 15,6 C 86 % 1004,1 hPa 0,0 l/m 0 min 0 min 0,0 UV-I 0 W/m 42,4 km/h (6 Bft)
10.08.2014 22:22 17,6 C 15,6 C 85 % 1004,2 hPa 0,0 l/m 0 min 0 min 0,0 UV-I 0 W/m 46,0 km/h (6 Bft)
10.08.2014 22:24 17,6 C 15,6 C 85 % 1004,2 hPa 0,0 l/m 0 min 0 min 0,0 UV-I 0 W/m 38,9 km/h (6 Bft)
10.08.2014 22:26 17,6 C 15,6 C 85 % 1004,2 hPa 0,0 l/m 0 min 0 min 0,0 UV-I 0 W/m 38,9 km/h (6 Bft)
10.08.2014 22:28 17,6 C 15,6 C 85 % 1004,3 hPa 0,0 l/m 0 min 0 min 0,0 UV-I 0 W/m 46,0 km/h (6 Bft)
10.08.2014 22:30 17,6 C 15,6 C 85 % 1004,4 hPa 0,0 l/m 0 min 0 min 0,0 UV-I 0 W/m 35,4 km/h (5 Bft)
10.08.2014 22:32 17,6 C 15,6 C 85 % 1004,5 hPa 0,0 l/m 0 min 0 min 0,0 UV-I 0 W/m 56,5 km/h (7 Bft)
10.08.2014 22:34 17,6 C 15,6 C 85 % 1004,6 hPa 0,0 l/m 0 min 0 min 0,0 UV-I 0 W/m 63,7 km/h (8 Bft)
10.08.2014 22:36 17,7 C 15,6 C 84 % 1004,6 hPa 0,0 l/m 0 min 0 min 0,0 UV-I 0 W/m 53,0 km/h (7 Bft)
10.08.2014 22:38 17,7 C 15,6 C 84 % 1004,6 hPa 0,0 l/m 0 min 0 min 0,0 UV-I 0 W/m 49,5 km/h (6 Bft)
10.08.2014 22:40 17,7 C 15,6 C 84 % 1004,6 hPa 0,0 l/m 0 min 0 min 0,0 UV-I 0 W/m 46,0 km/h (6 Bft)
10.08.2014 22:42 17,7 C 15,6 C 83 % 1004,6 hPa 0,0 l/m 0 min 0 min 0,0 UV-I 0 W/m 38,9 km/h (6 Bft)
10.08.2014 22:44 17,7 C 15,6 C 83 % 1004,6 hPa 0,0 l/m 0 min 0 min 0,0 UV-I 0 W/m 56,5 km/h (7 Bft)
10.08.2014 22:46 17,7 C 15,6 C 83 % 1004,7 hPa 0,0 l/m 0 min 0 min 0,0 UV-I 0 W/m 35,4 km/h (5 Bft)
10.08.2014 22:48 17,7 C 15,6 C 83 % 1004,8 hPa 0,0 l/m 0 min 0 min 0,0 UV-I 0 W/m 38,9 km/h (6 Bft)
10.08.2014 22:50 17,7 C 15,6 C 84 % 1004,8 hPa 0,0 l/m 0 min 0 min 0,0 UV-I 0 W/m 56,5 km/h (7 Bft)
10.08.2014 22:52 17,6 C 15,6 C 84 % 1004,8 hPa 0,0 l/m 0 min 0 min 0,0 UV-I 0 W/m 38,9 km/h (6 Bft)
10.08.2014 22:54 17,6 C 15,6 C 84 % 1004,8 hPa 0,0 l/m 0 min 0 min 0,0 UV-I 0 W/m 56,5 km/h (7 Bft)
10.08.2014 22:56 17,6 C 15,6 C 84 % 1004,9 hPa 0,0 l/m 0 min 0 min 0,0 UV-I 0 W/m 49,5 km/h (6 Bft)
10.08.2014 22:58 17,6 C 15,6 C 84 % 1004,9 hPa 0,0 l/m 0 min 0 min 0,0 UV-I 0 W/m 56,5 km/h (7 Bft)
10.08.2014 23:00 17,6 C 15,6 C 84 % 1004,9 hPa 0,0 l/m 0 min 0 min 0,0 UV-I 0 W/m 63,7 km/h (8 Bft)
10.08.2014 23:02 17,6 C 15,6 C 83 % 1005,0 hPa 0,0 l/m 0 min 0 min 0,0 UV-I 0 W/m 49,5 km/h (6 Bft)
10.08.2014 23:04 17,6 C 15,6 C 83 % 1005,0 hPa 0,0 l/m 0 min 0 min 0,0 UV-I 0 W/m 42,4 km/h (6 Bft)
10.08.2014 23:06 17,6 C 15,6 C 83 % 1005,0 hPa 0,0 l/m 0 min 0 min 0,0 UV-I 0 W/m 42,4 km/h (6 Bft)
10.08.2014 23:08 17,5 C 15,6 C 83 % 1005,1 hPa 0,0 l/m 0 min 0 min 0,0 UV-I 0 W/m 63,7 km/h (8 Bft)
10.08.2014 23:10 17,4 C 15,6 C 83 % 1005,2 hPa 0,0 l/m 0 min 0 min 0,0 UV-I 0 W/m 56,5 km/h (7 Bft)
10.08.2014 23:12 17,4 C 15,6 C 82 % 1005,1 hPa 0,0 l/m 0 min 0 min 0,0 UV-I 0 W/m 77,7 km/h (9 Bft)
10.08.2014 23:14 17,5 C 15,6 C 82 % 1005,3 hPa 0,0 l/m 0 min 0 min 0,0 UV-I 0 W/m 67,1 km/h (8 Bft)
10.08.2014 23:16 17,5 C 15,6 C 82 % 1005,2 hPa 0,0 l/m 0 min 0 min 0,0 UV-I 0 W/m 67,1 km/h (8 Bft)
10.08.2014 23:18 17,4 C 15,6 C 82 % 1005,3 hPa 0,0 l/m 0 min 0 min 0,0 UV-I 0 W/m 70,6 km/h (8 Bft)
10.08.2014 23:20 17,4 C 15,6 C 82 % 1005,4 hPa 0,0 l/m 0 min 0 min 0,0 UV-I 0 W/m 70,6 km/h (8 Bft)
10.08.2014 23:22 17,4 C 15,6 C 82 % 1005,5 hPa 0,0 l/m 0 min 0 min 0,0 UV-I 0 W/m 67,1 km/h (8 Bft)
10.08.2014 23:24 17,3 C 15,6 C 81 % 1005,5 hPa 0,0 l/m 0 min 0 min 0,0 UV-I 0 W/m 77,7 km/h (9 Bft)
10.08.2014 23:26 17,3 C 15,6 C 81 % 1005,4 hPa 0,0 l/m 0 min 0 min 0,0 UV-I 0 W/m 56,5 km/h (7 Bft)
10.08.2014 23:28 17,3 C 15,6 C 81 % 1005,5 hPa 0,0 l/m 0 min 0 min 0,0 UV-I 0 W/m 49,5 km/h (6 Bft)
10.08.2014 23:30 17,2 C 15,6 C 81 % 1005,6 hPa 0,0 l/m 0 min 0 min 0,0 UV-I 0 W/m 74,2 km/h (8 Bft)
10.08.2014 23:32 17,2 C 15,0 C 81 % 1005,5 hPa 0,0 l/m 0 min 0 min 0,0 UV-I 0 W/m 77,7 km/h (9 Bft)
10.08.2014 23:34 17,1 C 15,0 C 81 % 1005,6 hPa 0,0 l/m 0 min 0 min 0,0 UV-I 0 W/m 46,0 km/h (6 Bft)
10.08.2014 23:36 17,1 C 15,0 C 81 % 1005,6 hPa 0,0 l/m 0 min 0 min 0,0 UV-I 0 W/m 63,7 km/h (8 Bft)
10.08.2014 23:38 17,1 C 15,0 C 80 % 1005,7 hPa 0,0 l/m 0 min 0 min 0,0 UV-I 0 W/m 56,5 km/h (7 Bft)
10.08.2014 23:40 17,0 C 15,0 C 80 % 1005,8 hPa 0,0 l/m 0 min 0 min 0,0 UV-I 0 W/m 49,5 km/h (6 Bft)
10.08.2014 23:42 17,0 C 15,0 C 80 % 1005,8 hPa 0,0 l/m 0 min 0 min 0,0 UV-I 0 W/m 60,2 km/h (7 Bft)
10.08.2014 23:44 16,9 C 15,0 C 80 % 1005,8 hPa 0,0 l/m 0 min 0 min 0,0 UV-I 0 W/m 35,4 km/h (5 Bft)
10.08.2014 23:46 16,9 C 15,0 C 80 % 1005,8 hPa 0,0 l/m 0 min 0 min 0,0 UV-I 0 W/m 46,0 km/h (6 Bft)
10.08.2014 23:48 16,8 C 15,0 C 80 % 1005,8 hPa 0,0 l/m 0 min 0 min 0,0 UV-I 0 W/m 70,6 km/h (8 Bft)
10.08.2014 23:50 16,8 C 15,0 C 80 % 1005,8 hPa 0,0 l/m 0 min 0 min 0,0 UV-I 0 W/m 70,6 km/h (8 Bft)
10.08.2014 23:52 16,8 C 15,0 C 80 % 1005,9 hPa 0,0 l/m 0 min 0 min 0,0 UV-I 0 W/m 56,5 km/h (7 Bft)
10.08.2014 23:54 16,8 C 15,0 C 80 % 1005,9 hPa 0,0 l/m 0 min 0 min 0,0 UV-I 0 W/m 49,5 km/h (6 Bft)
10.08.2014 23:56 16,8 C 15,0 C 80 % 1005,9 hPa 0,0 l/m 0 min 0 min 0,0 UV-I 0 W/m 53,0 km/h (7 Bft)
10.08.2014 23:58 16,7 C 15,0 C 80 % 1006,0 hPa 0,0 l/m 0 min 0 min 0,0 UV-I 0 W/m 56,5 km/h (7 Bft)
_ Min-Zeit 02:24 02:04 10:22 19:08 - - - - - 00:00
Minimum _ 16,1 C 14,4 C 76 % 1000,2 hPa - - - - - 0,0 km/h (0 Bft)
_ Max-Zeit 13:36 10:20 19:50 00:02 19:26 06:56 13:22 13:30 10:34 21:30
Maximum _ 23,9 C 25,6 C 95 % 1012,0 hPa 0,6 l/m 2 min 2 min 4,4 UV-I 752 W/m 88,4 km/h
W-NW (10 Bft)
Durchschnitt _ 19,5 C 18,0 C 87 % 1005,8 hPa #4,2 l/m #5:37 h #2:28 h 1,5 UV-I 220 W/m 31,9 km/h (5 Bft)
© 2014 W. Hausmann